M I D A S
Marine Information and Data Acquisition System
Tripno 1862 of the Zeeleeuw from 2010-04-15 07:09:10 to 2010-04-15 17:45:54
Back to CruiseResearch ActivitiesStationsMapUnderway DataData graphs

EquipmentUnitsComment
TimeDGPSUTC
LatitudeDGPSDM.mWGS84
LongitudeDGPSDM.mWGS84
TemperatureSBE03/SBE38deg celciusITS90
ConductivitySBE21S/mITS90
SalinitySBE21 Practical Salinity Units
ChlorophylAChelsea fluorimeterg/lCalibrated in Aceton
Missing or incorrect values are displayed as -999
Sea surface data collected by the RV Zeeleeuw from 2010-04-15 07:04:06 to 2010-04-15 22:15:01
                                                                                    Next 1000 lines
Time Latitude Longitude Temperature Conductivity Salinity ChlorophylA
2010-04-15 07:04:15 51°13.662 2°55.958 17.085 1.76436 12.752176 -0.826448
2010-04-15 07:04:21 51°13.662 2°55.957 17.0604 1.76436 12.752176 -0.826448
2010-04-15 07:04:26 51°13.663 2°55.955 17.0172 1.76436 12.752413 -0.861272
2010-04-15 07:04:31 51°13.663 2°55.952 17.1041 1.76436 12.752176 -0.861272
2010-04-15 07:04:36 51°13.664 2°55.949 17.1007 1.76436 12.752413 -0.861272
2010-04-15 07:04:41 51°13.665 2°55.946 17.1039 1.76436 12.75265 -0.861272
2010-04-15 07:04:47 51°13.667 2°55.942 17.0555 1.76436 12.753359 -0.896096
2010-04-15 07:04:52 51°13.668 2°55.939 17.0795 1.76436 12.753359 -0.896096
2010-04-15 07:04:58 51°13.67 2°55.934 17.0971 1.764466 12.754422 -0.861272
2010-04-15 07:05:03 51°13.671 2°55.931 17.0908 1.76436 12.753596 -0.861272
2010-04-15 07:05:09 51°13.673 2°55.925 17.0782 1.764466 12.754422 -0.826448
2010-04-15 07:05:14 51°13.674 2°55.92 17.0769 1.764466 12.754658 -0.826448
2010-04-15 07:05:19 51°13.675 2°55.915 17.1031 1.764466 12.754895 -0.826448
2010-04-15 07:05:24 51°13.677 2°55.91 17.1164 1.764466 12.754895 -0.826448
2010-04-15 07:05:30 51°13.679 2°55.903 17.1025 1.764466 12.754658 -0.861272
2010-04-15 07:05:34 51°13.68 2°55.898 17.1025 1.764466 12.754895 -0.861272
2010-04-15 07:05:39 51°13.682 2°55.892 17.0941 1.764466 12.754895 -0.826448
2010-04-15 07:05:45 51°13.684 2°55.885 17.1047 1.764466 12.755132 -0.861272
2010-04-15 07:05:50 51°13.685 2°55.879 17.111 1.764466 12.755132 -0.861272
2010-04-15 07:05:55 51°13.686 2°55.872 17.1199 1.764466 12.755132 -0.861272
2010-04-15 07:05:59 51°13.687 2°55.867 17.1227 1.764466 12.755132 -0.896096
2010-04-15 07:06:05 51°13.688 2°55.859 17.1247 1.764466 12.754895 -0.896096
2010-04-15 07:06:10 51°13.688 2°55.851 17.1259 1.764466 12.754658 -0.826448
2010-04-15 07:06:15 51°13.689 2°55.844 17.1252 1.764466 12.754422 -0.861272
2010-04-15 07:06:19 51°13.69 2°55.838 17.1322 1.764466 12.754185 -0.896096
2010-04-15 07:06:24 51°13.69 2°55.831 17.1335 1.764466 12.754185 -0.896096
2010-04-15 07:06:30 51°13.691 2°55.822 17.1355 1.764466 12.754185 -0.826448
2010-04-15 07:06:35 51°13.691 2°55.815 17.133 1.764466 12.754422 -0.861272
2010-04-15 07:06:39 51°13.691 2°55.809 17.1334 1.764466 12.754422 -0.861272
2010-04-15 07:06:44 51°13.691 2°55.802 17.1338 1.76436 12.753832 -0.826448
2010-04-15 07:06:50 51°13.691 2°55.793 17.1337 1.764466 12.754658 -0.861272
2010-04-15 07:06:55 51°13.691 2°55.786 17.1336 1.764466 12.754658 -0.861272
2010-04-15 07:06:59 51°13.691 2°55.78 17.1295 1.764571 12.755484 -0.826448
2010-04-15 07:07:04 51°13.69 2°55.773 17.1259 1.764466 12.754658 -0.826448
2010-04-15 07:07:09 51°13.69 2°55.767 17.1257 1.764466 12.754658 -0.861272
2010-04-15 07:07:15 51°13.69 2°55.761 17.1279 1.764466 12.754422 -0.826448
2010-04-15 07:07:19 51°13.691 2°55.758 17.1299 1.764466 12.754422 -0.826448
2010-04-15 07:07:24 51°13.691 2°55.756 17.1396 1.764466 12.754422 -0.826448
2010-04-15 07:07:30 51°13.691 2°55.755 17.1553 1.764466 12.754422 -0.861272
2010-04-15 07:07:34 51°13.692 2°55.755 17.17 1.764466 12.754658 -0.861272
2010-04-15 07:07:39 51°13.692 2°55.757 17.1855 1.764466 12.754895 -0.861272
2010-04-15 07:07:44 51°13.693 2°55.76 17.2094 1.764466 12.755132 -0.861272
2010-04-15 07:07:49 51°13.695 2°55.763 17.2162 1.764466 12.755368 -0.826448
2010-04-15 07:07:54 51°13.697 2°55.767 17.1875 1.764466 12.755368 -0.826448
2010-04-15 07:07:59 51°13.699 2°55.77 17.1592 1.764466 12.755368 -0.861272
2010-04-15 07:08:04 51°13.701 2°55.773 17.131 1.764466 12.754895 -0.826448
2010-04-15 07:08:09 51°13.703 2°55.774 17.1062 1.76436 12.752413 -0.861272
2010-04-15 07:08:14 51°13.704 2°55.776 17.1195 1.76436 12.75123 -0.861272
2010-04-15 07:08:19 51°13.704 2°55.776 17.123 1.76436 12.750521 -0.791624
2010-04-15 07:08:24 51°13.704 2°55.776 17.1197 1.76436 12.750521 -0.791624
2010-04-15 07:08:30 51°13.704 2°55.776 17.0802 1.764255 12.749459 -0.861272
2010-04-15 07:08:35 51°13.703 2°55.776 17.1366 1.764255 12.749459 -0.861272
2010-04-15 07:08:39 51°13.702 2°55.775 17.1658 1.76436 12.750048 -0.861272
2010-04-15 07:08:44 51°13.701 2°55.774 17.1592 1.76436 12.750994 -0.826448
2010-04-15 07:08:50 51°13.699 2°55.772 17.1793 1.76436 12.75194 -0.861272
2010-04-15 07:08:55 51°13.698 2°55.771 17.1823 1.76436 12.75194 -0.861272
2010-04-15 07:08:59 51°13.698 2°55.771 17.1846 1.76436 12.752176 -0.861272
2010-04-15 07:09:04 51°13.699 2°55.771 17.1858 1.76436 12.75265 -0.861272
2010-04-15 07:09:09 51°13.7 2°55.771 17.1862 1.76436 12.75265 -0.861272
2010-04-15 07:09:15 51°13.702 2°55.771 17.187 1.76436 12.752886 -0.861272
2010-04-15 07:09:19 51°13.704 2°55.771 17.1872 1.764466 12.754422 -0.861272
2010-04-15 07:09:24 51°13.706 2°55.771 17.1738 1.764466 12.754422 -0.861272
2010-04-15 07:09:29 51°13.709 2°55.77 17.1714 1.764466 12.754422 -0.826448
2010-04-15 07:09:34 51°13.711 2°55.769 17.1719 1.76436 12.753359 -0.826448
2010-04-15 07:09:39 51°13.713 2°55.768 17.173 1.76436 12.753123 -0.826448
2010-04-15 07:09:44 51°13.716 2°55.766 17.1781 1.76436 12.753123 -0.826448
2010-04-15 07:09:50 51°13.72 2°55.763 17.1835 1.764466 12.753475 -0.861272
2010-04-15 07:09:54 51°13.723 2°55.76 17.19 1.764466 12.753475 -0.861272
2010-04-15 07:09:59 51°13.726 2°55.755 17.1817 1.764466 12.753475 -0.861272
2010-04-15 07:10:04 51°13.73 2°55.751 17.1782 1.764465 12.752766 -0.826448
2010-04-15 07:10:10 51°13.735 2°55.744 17.1671 1.76436 12.751467 -0.861272
2010-04-15 07:10:14 51°13.739 2°55.74 17.1619 1.76436 12.750994 -0.861272
2010-04-15 07:10:19 51°13.744 2°55.734 17.1328 1.76436 12.750757 -0.861272
2010-04-15 07:10:24 51°13.749 2°55.727 17.1252 1.76436 12.750757 -0.861272
2010-04-15 07:10:29 51°13.754 2°55.72 17.109 1.76436 12.750757 -0.861272
2010-04-15 07:10:34 51°13.76 2°55.712 17.0976 1.76436 12.750757 -0.861272
2010-04-15 07:10:39 51°13.766 2°55.705 17.0858 1.764465 12.75182 -0.861272
2010-04-15 07:10:43 51°13.771 2°55.698 17.0764 1.76436 12.75123 -0.826448
2010-04-15 07:10:49 51°13.777 2°55.688 17.063 1.764465 12.752293 -0.861272
2010-04-15 07:10:55 51°13.786 2°55.678 17.0557 1.764465 12.752293 -0.861272
2010-04-15 07:10:59 51°13.79 2°55.671 17.041 1.76436 12.751467 -0.861272
2010-04-15 07:11:04 51°13.798 2°55.663 17.0305 1.764465 12.752293 -0.861272
2010-04-15 07:11:10 51°13.807 2°55.655 17.035 1.76436 12.750994 -0.896096
2010-04-15 07:11:15 51°13.814 2°55.647 17.0393 1.76436 12.750994 -0.861272
2010-04-15 07:11:19 51°13.822 2°55.638 17.0555 1.764465 12.752056 -0.791624
2010-04-15 07:11:24 51°13.831 2°55.632 17.0508 1.764465 12.752056 -0.791624
2010-04-15 07:11:25 51°13.832 2°55.63 17.0645 1.76436 12.750994 -0.861272
2010-04-15 07:11:25 51°13.832 2°55.63 17.0558 1.76436 12.75123 -0.826448
2010-04-15 07:11:39 51°13.859 2°55.612 17.076 1.76436 12.75123 -0.826448
2010-04-15 07:11:44 51°13.867 2°55.606 17.076 1.76436 12.751467 -0.826448
2010-04-15 07:11:49 51°13.876 2°55.601 17.0786 1.76436 12.75123 -0.861272
2010-04-15 07:11:54 51°13.885 2°55.595 17.1018 1.76436 12.75123 -0.861272
2010-04-15 07:11:59 51°13.894 2°55.59 17.109 1.76436 12.750994 -0.861272
2010-04-15 07:12:03 51°13.901 2°55.583 17.1045 1.76436 12.750757 -0.861272
2010-04-15 07:12:09 51°13.911 2°55.574 17.0947 1.76436 12.750994 -0.861272
2010-04-15 07:12:14 51°13.92 2°55.566 17.09 1.76436 12.750757 -0.861272
2010-04-15 07:12:19 51°13.929 2°55.559 17.0997 1.76436 12.750757 -0.861272
2010-04-15 07:12:24 51°13.938 2°55.551 17.1024 1.76436 12.750757 -0.861272
2010-04-15 07:12:30 51°13.949 2°55.542 17.1036 1.76436 12.750757 -0.826448
2010-04-15 07:12:35 51°13.958 2°55.534 17.0992 1.76436 12.750757 -0.861272
2010-04-15 07:12:39 51°13.965 2°55.529 17.0945 1.76436 12.750757 -0.826448
2010-04-15 07:12:44 51°13.974 2°55.521 17.0912 1.76436 12.750757 -0.826448
2010-04-15 07:12:50 51°13.985 2°55.513 17.0938 1.76436 12.750757 -0.861272
2010-04-15 07:12:55 51°13.994 2°55.505 17.0987 1.76436 12.750757 -0.861272
2010-04-15 07:12:59 51°14.002 2°55.499 17.1019 1.76436 12.750521 -0.826448
2010-04-15 07:13:04 51°14.011 2°55.493 17.105 1.764465 12.751347 -0.861272
2010-04-15 07:13:10 51°14.023 2°55.485 17.1067 1.76436 12.750757 -0.861272
2010-04-15 07:13:14 51°14.03 2°55.479 17.107 1.76436 12.750757 -0.861272
2010-04-15 07:13:19 51°14.04 2°55.473 17.1067 1.764465 12.751583 -0.826448
2010-04-15 07:13:24 51°14.049 2°55.466 17.1069 1.764465 12.751583 -0.826448
2010-04-15 07:13:30 51°14.06 2°55.457 17.0962 1.76436 12.750521 -0.861272
2010-04-15 07:13:34 51°14.068 2°55.452 17.0975 1.76436 12.750757 -0.826448
2010-04-15 07:13:39 51°14.078 2°55.445 17.1085 1.76436 12.750284 -0.826448
2010-04-15 07:13:43 51°14.085 2°55.44 17.1142 1.76436 12.750284 -0.861272
2010-04-15 07:13:48 51°14.095 2°55.433 17.1179 1.76436 12.750284 -0.896096
2010-04-15 07:13:54 51°14.106 2°55.424 17.123 1.76436 12.750284 -0.896096
2010-04-15 07:13:59 51°14.116 2°55.416 17.1247 1.76436 12.750521 -0.826448
2010-04-15 07:14:04 51°14.126 2°55.409 17.1292 1.76436 12.750521 -0.826448
2010-04-15 07:14:10 51°14.139 2°55.398 17.1321 1.76436 12.750521 -0.861272
2010-04-15 07:14:14 51°14.147 2°55.391 17.0894 1.76436 12.750521 -0.861272
2010-04-15 07:14:19 51°14.159 2°55.382 17.1263 1.76436 12.750284 -0.861272
2010-04-15 07:14:24 51°14.17 2°55.372 17.1048 1.76436 12.750284 -0.861272
2010-04-15 07:14:30 51°14.185 2°55.359 17.1145 1.76436 12.750048 -0.861272
2010-04-15 07:14:34 51°14.194 2°55.351 17.1176 1.76436 12.749812 -0.826448
2010-04-15 07:14:40 51°14.209 2°55.338 17.118 1.76436 12.749812 -0.861272
2010-04-15 07:14:45 51°14.222 2°55.327 17.0926 1.764255 12.74875 -0.861272
2010-04-15 07:14:50 51°14.235 2°55.315 17.0555 1.76436 12.749575 -0.861272
2010-04-15 07:14:55 51°14.248 2°55.303 17.0486 1.76436 12.749575 -0.861272
2010-04-15 07:14:59 51°14.258 2°55.292 17.0367 1.764255 12.748986 -0.861272
2010-04-15 07:15:04 51°14.271 2°55.279 17.0235 1.76436 12.749339 -0.861272
2010-04-15 07:15:09 51°14.284 2°55.265 16.969 1.76436 12.748866 -0.826448
2010-04-15 07:15:14 51°14.297 2°55.252 16.9799 1.764255 12.748513 -0.826448
2010-04-15 07:15:19 51°14.311 2°55.239 16.9848 1.764255 12.747804 -0.826448
2010-04-15 07:15:24 51°14.324 2°55.224 16.9694 1.764255 12.747804 -0.826448
2010-04-15 07:15:29 51°14.338 2°55.21 17.0002 1.76436 12.74863 -0.861272
2010-04-15 07:15:34 51°14.352 2°55.195 17.0173 1.76436 12.747448 -0.861272
2010-04-15 07:15:39 51°14.366 2°55.181 16.9662 1.76457 12.74839 -0.861272
2010-04-15 07:15:43 51°14.377 2°55.169 17.0228 1.764465 12.748273 -0.896096
2010-04-15 07:15:48 51°14.391 2°55.154 17.0456 1.76436 12.747684 -0.861272
2010-04-15 07:15:53 51°14.405 2°55.139 16.9927 1.76436 12.747684 -0.861272
2010-04-15 07:15:58 51°14.42 2°55.124 16.993 1.764465 12.748982 -0.861272
2010-04-15 07:16:03 51°14.434 2°55.108 17.0002 1.764255 12.74875 -0.826448
2010-04-15 07:16:07 51°14.446 2°55.096 17.0331 1.764255 12.746859 -0.861272
2010-04-15 07:16:13 51°14.463 2°55.078 16.9873 1.76436 12.747448 -0.861272
2010-04-15 07:16:18 51°14.478 2°55.062 16.9926 1.764255 12.747331 -0.826448
2010-04-15 07:16:22 51°14.489 2°55.05 16.9708 1.764255 12.747331 -0.826448
2010-04-15 07:16:27 51°14.504 2°55.034 17.0403 1.764255 12.74875 -0.861272
2010-04-15 07:16:31 51°14.516 2°55.021 17.0374 1.764465 12.748746 -0.861272
2010-04-15 07:16:37 51°14.532 2°55.001 16.8892 1.76436 12.74792 -0.861272
2010-04-15 07:16:41 51°14.544 2°54.987 16.9912 1.764255 12.746386 -0.861272
2010-04-15 07:16:46 51°14.558 2°54.969 17.0197 1.764465 12.74591 -0.826448
2010-04-15 07:16:51 51°14.571 2°54.951 17.0167 1.764465 12.74591 -0.826448
2010-04-15 07:16:56 51°14.584 2°54.93 16.9594 1.764465 12.746619 -0.861272
2010-04-15 07:17:01 51°14.598 2°54.911 16.9482 1.764045 12.745208 -0.826448
2010-04-15 07:17:06 51°14.612 2°54.892 16.9893 1.76457 12.748862 -0.861272
2010-04-15 07:17:11 51°14.626 2°54.874 16.9488 1.76436 12.750521 -0.896096
2010-04-15 07:17:16 51°14.64 2°54.855 16.9558 1.764465 12.75111 -0.826448
2010-04-15 07:17:21 51°14.654 2°54.837 16.9455 1.764465 12.75111 -0.826448
2010-04-15 07:17:26 51°14.669 2°54.819 16.9376 1.764991 12.754292 -0.861272
2010-04-15 07:17:31 51°14.684 2°54.801 16.9585 1.76457 12.750281 -0.861272
2010-04-15 07:17:36 51°14.699 2°54.784 16.9376 1.76457 12.749808 -0.861272
2010-04-15 07:17:41 51°14.714 2°54.766 16.9264 1.764675 12.748979 -0.826448
2010-04-15 07:17:46 51°14.729 2°54.748 16.9551 1.764465 12.746619 -0.826448
2010-04-15 07:17:51 51°14.744 2°54.73 16.939 1.764465 12.746619 -0.826448
2010-04-15 07:17:56 51°14.758 2°54.713 16.9366 1.76478 12.747677 -0.861272
2010-04-15 07:18:01 51°14.773 2°54.696 16.8366 1.76457 12.750044 -0.826448
2010-04-15 07:18:06 51°14.789 2°54.68 16.9132 1.764676 12.753707 -0.826448
2010-04-15 07:18:11 51°14.805 2°54.664 16.8656 1.76436 12.753123 -0.861272
2010-04-15 07:18:16 51°14.82 2°54.648 16.7384 1.764781 12.751222 -0.861272
2010-04-15 07:18:21 51°14.836 2°54.632 16.7827 1.764781 12.751222 -0.861272
2010-04-15 07:18:26 51°14.852 2°54.617 16.7295 1.76436 12.742487 -0.826448
2010-04-15 07:18:31 51°14.868 2°54.6 16.7673 1.76478 12.743662 -0.826448
2010-04-15 07:18:36 51°14.883 2°54.584 16.7571 1.76499 12.742007 -0.861272
2010-04-15 07:18:41 51°14.899 2°54.566 16.6132 1.764885 12.742834 -0.826448
2010-04-15 07:18:46 51°14.914 2°54.549 16.7146 1.76415 12.739184 -0.826448
2010-04-15 07:18:51 51°14.929 2°54.531 16.6021 1.76415 12.739184 -0.826448
2010-04-15 07:18:56 51°14.944 2°54.515 16.6025 1.764465 12.744257 -0.861272
2010-04-15 07:19:01 51°14.958 2°54.498 16.6754 1.764675 12.746143 -0.861272
2010-04-15 07:19:06 51°14.973 2°54.481 16.6862 1.76457 12.744373 -0.861272
2010-04-15 07:19:11 51°14.988 2°54.464 16.6807 1.764465 12.743548 -0.861272
2010-04-15 07:19:16 51°15.002 2°54.447 16.6567 1.76478 12.740121 -0.861272
2010-04-15 07:19:21 51°15.017 2°54.429 16.6485 1.76478 12.740121 -0.861272
2010-04-15 07:19:26 51°15.032 2°54.411 16.6253 1.76457 12.73918 -0.826448
2010-04-15 07:19:31 51°15.046 2°54.393 16.6098 1.764465 12.740243 -0.896096
2010-04-15 07:19:36 51°15.06 2°54.375 16.5195 1.764675 12.742601 -0.861272
2010-04-15 07:19:41 51°15.075 2°54.358 16.6058 1.76478 12.745551 -0.861272
2010-04-15 07:19:46 51°15.09 2°54.342 16.609 1.764675 12.75016 -0.826448
2010-04-15 07:19:51 51°15.105 2°54.325 16.5732 1.764675 12.75016 -0.826448
2010-04-15 07:19:56 51°15.12 2°54.307 16.6154 1.765306 12.751331 -0.861272
2010-04-15 07:20:01 51°15.134 2°54.289 16.5358 1.765306 12.750858 -0.861272
2010-04-15 07:20:06 51°15.148 2°54.269 16.5529 1.765095 12.74779 -0.861272
2010-04-15 07:20:11 51°15.162 2°54.249 16.5721 1.76457 12.745318 -0.861272
2010-04-15 07:20:16 51°15.176 2°54.23 16.5604 1.764886 12.750393 -0.826448
2010-04-15 07:20:21 51°15.19 2°54.209 16.519 1.764886 12.750393 -0.826448
2010-04-15 07:20:26 51°15.204 2°54.19 16.5358 1.764675 12.75087 -0.861272
2010-04-15 07:20:31 51°15.218 2°54.169 16.5504 1.765411 12.757595 -0.861272
2010-04-15 07:20:36 51°15.232 2°54.15 16.5591 1.764676 12.753234 -0.826448
2010-04-15 07:20:41 51°15.247 2°54.132 16.5583 1.764465 12.749691 -0.861272
2010-04-15 07:20:46 51°15.261 2°54.113 16.5632 1.764675 12.751106 -0.826448
2010-04-15 07:20:51 51°15.276 2°54.095 16.4963 1.764675 12.751106 -0.826448
2010-04-15 07:20:56 51°15.291 2°54.076 16.5542 1.764675 12.748506 -0.826448
2010-04-15 07:21:01 51°15.305 2°54.057 16.5585 1.76499 12.749564 -0.861272
2010-04-15 07:21:06 51°15.319 2°54.038 16.5405 1.76478 12.750277 -0.861272
2010-04-15 07:21:11 51°15.333 2°54.018 16.5452 1.764781 12.75406 -0.826448
2010-04-15 07:21:16 51°15.347 2°53.998 16.5151 1.764991 12.753346 -0.896096
2010-04-15 07:21:21 51°15.361 2°53.978 16.5686 1.764991 12.753346 -0.896096
2010-04-15 07:21:26 51°15.375 2°53.957 16.5586 1.764465 12.7478 -0.861272
2010-04-15 07:21:31 51°15.389 2°53.937 16.5563 1.764675 12.746852 -0.826448
2010-04-15 07:21:36 51°15.403 2°53.916 16.5438 1.764675 12.745671 -0.826448
2010-04-15 07:21:41 51°15.417 2°53.896 16.4778 1.764885 12.745195 -0.861272
2010-04-15 07:21:46 51°15.431 2°53.875 16.4992 1.764465 12.746146 -0.861272
2010-04-15 07:21:51 51°15.446 2°53.856 16.5271 1.764465 12.746146 -0.861272
2010-04-15 07:21:56 51°15.46 2°53.836 16.5332 1.764886 12.750866 -0.861272
2010-04-15 07:22:01 51°15.474 2°53.817 16.5249 1.764886 12.757962 -0.861272
2010-04-15 07:22:06 51°15.49 2°53.799 16.4631 1.764466 12.757972 -0.861272
2010-04-15 07:22:11 51°15.505 2°53.781 16.4952 1.764466 12.760577 -0.826448
2010-04-15 07:22:16 51°15.52 2°53.763 16.4941 1.765411 12.762565 -0.826448
2010-04-15 07:22:21 51°15.535 2°53.745 16.5032 1.765411 12.762565 -0.826448
2010-04-15 07:22:26 51°15.55 2°53.727 16.5129 1.764991 12.756894 -0.896096
2010-04-15 07:22:31 51°15.565 2°53.71 16.4942 1.764676 12.753234 -0.826448
2010-04-15 07:22:36 51°15.58 2°53.692 16.4817 1.764465 12.750401 -0.826448
2010-04-15 07:22:41 51°15.595 2°53.674 16.5095 1.764781 12.752405 -0.861272
2010-04-15 07:22:46 51°15.611 2°53.656 16.5148 1.76436 12.749812 -0.896096
2010-04-15 07:22:51 51°15.626 2°53.638 16.5006 1.76436 12.749812 -0.896096
2010-04-15 07:22:56 51°15.641 2°53.621 16.5162 1.764676 12.75489 -0.861272
2010-04-15 07:23:01 51°15.656 2°53.604 16.4679 1.764886 12.761276 -0.896096
2010-04-15 07:23:06 51°15.672 2°53.587 16.4864 1.764045 12.754668 -0.861272
2010-04-15 07:23:11 51°15.687 2°53.57 16.4922 1.764466 12.758445 -0.896096
2010-04-15 07:23:16 51°15.703 2°53.555 16.4993 1.764571 12.758798 -0.861272
2010-04-15 07:23:21 51°15.719 2°53.538 16.4778 1.764571 12.758798 -0.861272
2010-04-15 07:23:26 51°15.735 2°53.523 16.4796 1.764361 12.758566 -0.861272
2010-04-15 07:23:31 51°15.751 2°53.507 16.4649 1.765201 12.759966 -0.861272
2010-04-15 07:23:35 51°15.764 2°53.495 16.4828 1.764571 12.755957 -0.826448
2010-04-15 07:23:41 51°15.783 2°53.476 16.426 1.764466 12.757498 -0.826448
2010-04-15 07:23:46 51°15.798 2°53.46 16.4553 1.764151 12.758098 -0.861272
2010-04-15 07:23:51 51°15.815 2°53.445 16.4391 1.764151 12.758098 -0.861272
2010-04-15 07:23:56 51°15.831 2°53.429 16.4651 1.764571 12.762587 -0.861272
2010-04-15 07:24:01 51°15.847 2°53.415 16.4412 1.764676 12.75915 -0.826448
2010-04-15 07:24:06 51°15.863 2°53.4 16.4641 1.764045 12.753011 -0.826448
2010-04-15 07:24:11 51°15.879 2°53.386 16.4709 1.763625 12.746869 -0.826448
2010-04-15 07:24:16 51°15.895 2°53.372 16.4664 1.764781 12.755243 -0.861272
2010-04-15 07:24:21 51°15.912 2°53.359 16.4776 1.764781 12.755243 -0.861272
2010-04-15 07:24:26 51°15.928 2°53.345 16.4224 1.76415 12.752654 -0.826448
2010-04-15 07:24:31 51°15.945 2°53.332 16.4473 1.76415 12.75431 -0.861272
2010-04-15 07:24:36 51°15.961 2°53.319 16.4573 1.765306 12.774775 -0.826448
2010-04-15 07:24:41 51°15.977 2°53.306 16.4537 1.764361 12.770893 -0.826448
2010-04-15 07:24:46 51°15.994 2°53.293 16.4624 1.764571 12.768276 -0.861272
2010-04-15 07:24:51 51°16.01 2°53.28 16.4542 1.764571 12.768276 -0.861272
2010-04-15 07:24:55 51°16.024 2°53.27 16.4741 1.764886 12.769571 -0.861272
2010-04-15 07:25:01 51°16.044 2°53.256 16.4561 1.764886 12.766251 -0.826448
2010-04-15 07:25:06 51°16.06 2°53.244 16.4588 1.764466 12.760103 -0.861272
2010-04-15 07:25:11 51°16.077 2°53.232 16.4525 1.764886 12.761276 -0.861272
2010-04-15 07:25:15 51°16.09 2°53.223 16.491 1.764991 12.7685 -0.861272
2010-04-15 07:25:21 51°16.11 2°53.208 16.4866 1.764991 12.7685 -0.861272
2010-04-15 07:25:26 51°16.126 2°53.196 16.4898 1.764466 12.768873 -0.826448
2010-04-15 07:25:31 51°16.143 2°53.183 16.485 1.764361 12.773741 -0.826448
2010-04-15 07:25:35 51°16.156 2°53.173 16.4546 1.764991 12.776567 -0.861272
2010-04-15 07:25:41 51°16.176 2°53.159 16.4802 1.764571 12.774208 -0.826448
2010-04-15 07:25:46 51°16.192 2°53.146 16.4632 1.764361 12.776116 -0.826448
2010-04-15 07:25:51 51°16.209 2°53.133 16.4778 1.764361 12.776116 -0.826448
2010-04-15 07:25:55 51°16.222 2°53.123 16.494 1.764466 12.774331 -0.861272
2010-04-15 07:26:01 51°16.242 2°53.108 16.5009 1.764466 12.770059 -0.826448
2010-04-15 07:26:06 51°16.258 2°53.095 16.4836 1.764466 12.768398 -0.826448
2010-04-15 07:26:11 51°16.274 2°53.082 16.4918 1.764361 12.766149 -0.826448
2010-04-15 07:26:15 51°16.287 2°53.072 16.4745 1.764676 12.770763 -0.861272
2010-04-15 07:26:21 51°16.307 2°53.056 16.4996 1.764676 12.770763 -0.861272
2010-04-15 07:26:26 51°16.323 2°53.043 16.4763 1.764466 12.773381 -0.861272
2010-04-15 07:26:31 51°16.339 2°53.031 16.4669 1.763941 12.776845 -0.861272
2010-04-15 07:26:35 51°16.352 2°53.02 16.4898 1.764151 12.775174 -0.861272
2010-04-15 07:26:41 51°16.372 2°53.007 16.5017 1.763941 12.779934 -0.861272
2010-04-15 07:26:47 51°16.392 2°52.994 16.4893 1.764151 12.775886 -0.861272
2010-04-15 07:26:51 51°16.405 2°52.986 16.4833 1.764151 12.775886 -0.861272
2010-04-15 07:26:55 51°16.419 2°52.977 16.4962 1.764046 12.772921 -0.826448
2010-04-15 07:27:01 51°16.439 2°52.964 16.497 1.763941 12.766399 -0.826448
2010-04-15 07:27:06 51°16.455 2°52.953 16.5127 1.764151 12.766867 -0.861272
2010-04-15 07:27:11 51°16.472 2°52.942 16.4973 1.763941 12.768059 -0.826448
2010-04-15 07:27:15 51°16.485 2°52.934 16.5155 1.764151 12.771849 -0.826448
2010-04-15 07:27:21 51°16.505 2°52.922 16.5091 1.764151 12.771849 -0.826448
2010-04-15 07:27:26 51°16.522 2°52.911 16.5119 1.764151 12.7785 -0.861272
2010-04-15 07:27:31 51°16.539 2°52.9 16.5201 1.763626 12.778164 -0.861272
2010-04-15 07:27:35 51°16.552 2°52.892 16.4834 1.764046 12.77791 -0.861272
2010-04-15 07:27:41 51°16.572 2°52.878 16.4969 1.764151 12.776361 -0.896096
2010-04-15 07:27:46 51°16.588 2°52.866 16.4973 1.763626 12.767714 -0.861272
2010-04-15 07:27:51 51°16.605 2°52.856 16.5097 1.763626 12.767714 -0.861272
2010-04-15 07:27:55 51°16.619 2°52.847 16.4909 1.763626 12.775312 -0.861272
2010-04-15 07:28:01 51°16.638 2°52.836 16.4747 1.763731 12.775902 -0.826448
2010-04-15 07:28:06 51°16.655 2°52.826 16.5031 1.764256 12.781467 -0.826448
2010-04-15 07:28:11 51°16.672 2°52.817 16.5069 1.763416 12.772232 -0.861272
2010-04-15 07:28:15 51°16.685 2°52.809 16.5229 1.763836 12.77008 -0.861272
2010-04-15 07:28:21 51°16.705 2°52.798 16.5139 1.763836 12.77008 -0.861272
2010-04-15 07:28:26 51°16.722 2°52.789 16.5183 1.763941 12.771145 -0.861272
2010-04-15 07:28:31 51°16.739 2°52.781 16.5004 1.764046 12.777197 -0.861272
2010-04-15 07:28:35 51°16.752 2°52.773 16.5175 1.763731 12.780656 -0.861272
2010-04-15 07:28:41 51°16.772 2°52.764 16.498 1.763521 12.783044 -0.861272
2010-04-15 07:28:46 51°16.788 2°52.755 16.4981 1.763836 12.789814 -0.826448
2010-04-15 07:28:51 51°16.804 2°52.746 16.5044 1.763836 12.789814 -0.826448
2010-04-15 07:28:56 51°16.82 2°52.737 16.4998 1.763731 12.785653 -0.861272
2010-04-15 07:29:01 51°16.836 2°52.728 16.485 1.763521 12.782806 -0.861272
2010-04-15 07:29:06 51°16.852 2°52.719 16.5148 1.763836 12.780771 -0.861272
2010-04-15 07:29:11 51°16.869 2°52.712 16.4718 1.763101 12.780921 -0.861272
2010-04-15 07:29:16 51°16.885 2°52.705 16.513 1.762996 12.783187 -0.861272
2010-04-15 07:29:21 51°16.902 2°52.699 16.499 1.762996 12.783187 -0.861272
2010-04-15 07:29:26 51°16.918 2°52.692 16.4989 1.764151 12.791347 -0.861272
2010-04-15 07:29:31 51°16.934 2°52.687 16.511 1.762996 12.789141 -0.861272
2010-04-15 07:29:36 51°16.951 2°52.681 16.5075 1.763521 12.796146 -0.826448
2010-04-15 07:29:41 51°16.968 2°52.676 16.5066 1.763731 12.799235 -0.861272
2010-04-15 07:29:46 51°16.984 2°52.67 16.5107 1.762681 12.786655 -0.861272
2010-04-15 07:29:51 51°17.001 2°52.666 16.5262 1.762681 12.786655 -0.861272
2010-04-15 07:29:55 51°17.015 2°52.662 16.5097 1.763206 12.786987 -0.826448
2010-04-15 07:30:01 51°17.035 2°52.656 16.5151 1.762576 12.781539 -0.826448
2010-04-15 07:30:06 51°17.052 2°52.65 16.5194 1.762786 12.782482 -0.861272
2010-04-15 07:30:11 51°17.069 2°52.645 16.4941 1.762891 12.781168 -0.826448
2010-04-15 07:30:16 51°17.086 2°52.639 16.5005 1.762891 12.787836 -0.861272
2010-04-15 07:30:21 51°17.103 2°52.634 16.5186 1.762891 12.787836 -0.861272
2010-04-15 07:30:26 51°17.12 2°52.629 16.4933 1.762996 12.789618 -0.861272
2010-04-15 07:30:31 51°17.136 2°52.624 16.5231 1.762576 12.793693 -0.861272
2010-04-15 07:30:36 51°17.153 2°52.619 16.5227 1.762996 12.79868 -0.861272
2010-04-15 07:30:41 51°17.17 2°52.615 16.525 1.762891 12.793318 -0.861272
2010-04-15 07:30:46 51°17.186 2°52.609 16.5237 1.762366 12.786789 -0.826448
2010-04-15 07:30:51 51°17.203 2°52.604 16.5146 1.762366 12.786789 -0.826448
2010-04-15 07:30:56 51°17.22 2°52.599 16.5273 1.762471 12.781901 -0.861272
2010-04-15 07:31:01 51°17.237 2°52.593 16.532 1.762891 12.779741 -0.861272
2010-04-15 07:31:06 51°17.253 2°52.587 16.5164 1.762261 12.773345 -0.861272
2010-04-15 07:31:11 51°17.27 2°52.58 16.5238 1.762786 12.782244 -0.861272
2010-04-15 07:31:16 51°17.287 2°52.574 16.5215 1.762156 12.787514 -0.826448
2010-04-15 07:31:21 51°17.304 2°52.568 16.5245 1.762156 12.787514 -0.826448
2010-04-15 07:31:26 51°17.32 2°52.561 16.532 1.762786 12.787483 -0.861272
2010-04-15 07:31:31 51°17.337 2°52.554 16.5343 1.762681 12.789037 -0.861272
2010-04-15 07:31:35 51°17.35 2°52.548 16.5346 1.762261 12.781196 -0.861272
2010-04-15 07:32:01 51°17.439 2°52.529 16.5309 1.761736 12.794693 -0.861272
2010-04-15 07:32:28 51°17.529 2°52.539 16.5382 1.762366 12.817611 -0.861272
2010-04-15 07:32:47 51°17.592 2°52.552 16.5371 1.761736 12.824852 -0.861272
2010-04-15 07:33:11 51°17.672 2°52.569 16.5465 1.761631 12.778367 -0.826448
2010-04-15 07:33:16 51°17.688 2°52.572 16.5332 1.761631 12.775035 -0.861272
2010-04-15 07:33:16 51°17.688 2°52.572 16.5332 1.761631 12.775035 -0.861272
2010-04-15 07:33:29 51°17.732 2°52.58 16.5446 1.761421 12.780996 -0.826448
2010-04-15 07:33:34 51°17.748 2°52.583 16.5414 1.761211 12.787681 -0.826448
2010-04-15 07:33:56 51°17.822 2°52.594 16.5483 1.761526 12.803068 -0.861272
2010-04-15 07:35:05 51°18.055 2°52.634 16.5601 1.761001 12.799155 -0.826448
2010-04-15 07:35:10 51°18.072 2°52.639 16.5538 1.761106 12.794728 -0.826448
2010-04-15 07:35:15 51°18.089 2°52.644 16.5569 1.760476 12.789987 -0.861272
2010-04-15 07:35:20 51°18.105 2°52.649 16.5635 1.760476 12.789987 -0.861272
2010-04-15 07:35:25 51°18.122 2°52.655 16.5608 1.760791 12.792716 -0.861272
2010-04-15 07:35:30 51°18.138 2°52.661 16.5684 1.760896 12.795218 -0.861272
2010-04-15 07:35:35 51°18.154 2°52.669 16.565 1.760581 12.795356 -0.861272
2010-04-15 07:35:40 51°18.17 2°52.677 16.5706 1.760266 12.793104 -0.826448
2010-04-15 07:35:46 51°18.188 2°52.691 16.5862 1.760791 12.808021 -0.826448
2010-04-15 07:35:50 51°18.2 2°52.7 16.5855 1.760791 12.808021 -0.826448
2010-04-15 07:35:55 51°18.214 2°52.713 16.5853 1.761001 12.808725 -0.861272
2010-04-15 07:36:00 51°18.228 2°52.725 16.5559 1.760896 12.807176 -0.826448
2010-04-15 07:36:06 51°18.245 2°52.743 16.5866 1.761631 12.810358 -0.861272
2010-04-15 07:36:10 51°18.256 2°52.755 16.559 1.761001 12.807288 -0.861272
2010-04-15 07:36:15 51°18.269 2°52.77 16.581 1.760581 12.80588 -0.826448
2010-04-15 07:36:20 51°18.282 2°52.786 16.5816 1.760581 12.80588 -0.826448
2010-04-15 07:36:26 51°18.297 2°52.807 16.6022 1.760791 12.809937 -0.861272
2010-04-15 07:36:30 51°18.307 2°52.821 16.5962 1.760896 12.818678 -0.861272
2010-04-15 07:36:35 51°18.319 2°52.838 16.6028 1.760266 12.818246 -0.861272
2010-04-15 07:36:40 51°18.33 2°52.857 16.5933 1.760686 12.816535 -0.896096
2010-04-15 07:36:45 51°18.342 2°52.876 16.5979 1.760266 12.81177 -0.861272
2010-04-15 07:36:50 51°18.353 2°52.896 16.5887 1.760266 12.81177 -0.861272
2010-04-15 07:36:55 51°18.363 2°52.916 16.5997 1.760371 12.808768 -0.861272
2010-04-15 07:37:00 51°18.373 2°52.936 16.6022 1.760266 12.808895 -0.861272
2010-04-15 07:37:05 51°18.384 2°52.957 16.6038 1.760581 12.81067 -0.861272
2010-04-15 07:37:10 51°18.393 2°52.979 16.6129 1.759846 12.804851 -0.861272
2010-04-15 07:37:15 51°18.402 2°53 16.614 1.760791 12.80826 -0.826448
2010-04-15 07:37:20 51°18.411 2°53.022 16.6136 1.760791 12.80826 -0.826448
2010-04-15 07:37:25 51°18.42 2°53.044 16.6049 1.760056 12.805316 -0.861272
2010-04-15 07:37:30 51°18.429 2°53.066 16.6083 1.759951 12.802809 -0.861272
2010-04-15 07:37:35 51°18.437 2°53.088 16.6019 1.760056 12.805795 -0.861272
2010-04-15 07:37:40 51°18.446 2°53.111 16.6099 1.760581 12.807556 -0.861272
2010-04-15 07:37:45 51°18.454 2°53.133 16.6106 1.760371 12.804936 -0.861272
2010-04-15 07:37:50 51°18.462 2°53.156 16.6134 1.760371 12.804936 -0.861272
2010-04-15 07:37:55 51°18.471 2°53.178 16.5988 1.760056 12.803161 -0.896096
2010-04-15 07:38:00 51°18.48 2°53.2 16.6063 1.760056 12.804358 -0.861272
2010-04-15 07:38:06 51°18.49 2°53.227 16.6198 1.759741 12.80402 -0.826448
2010-04-15 07:38:10 51°18.495 2°53.246 16.6029 1.759741 12.804978 -0.896096
2010-04-15 07:38:15 51°18.504 2°53.268 16.6126 1.759846 12.802696 -0.861272
2010-04-15 07:38:20 51°18.511 2°53.292 16.616 1.759846 12.802696 -0.861272
2010-04-15 07:38:26 51°18.522 2°53.319 16.6242 1.760056 12.807232 -0.861272
2010-04-15 07:38:30 51°18.527 2°53.338 16.6195 1.759951 12.804006 -0.826448
2010-04-15 07:38:35 51°18.536 2°53.361 16.6184 1.759951 12.800176 -0.826448
2010-04-15 07:38:40 51°18.543 2°53.384 16.6255 1.759531 12.797092 -0.861272
2010-04-15 07:38:45 51°18.552 2°53.406 16.6277 1.759216 12.793164 -0.861272
2010-04-15 07:38:50 51°18.559 2°53.429 16.6193 1.759216 12.793164 -0.861272
2010-04-15 07:38:55 51°18.567 2°53.452 16.6351 1.760056 12.795506 -0.791624
2010-04-15 07:39:00 51°18.575 2°53.475 16.6255 1.759426 12.794348 -0.861272
2010-04-15 07:39:05 51°18.584 2°53.498 16.6284 1.759321 12.793039 -0.861272
2010-04-15 07:39:10 51°18.592 2°53.521 16.6261 1.759426 12.794587 -0.826448
2010-04-15 07:39:15 51°18.601 2°53.544 16.6319 1.759216 12.794599 -0.861272
2010-04-15 07:39:20 51°18.608 2°53.567 16.603 1.759216 12.794599 -0.861272
2010-04-15 07:39:25 51°18.617 2°53.589 16.6216 1.759426 12.796022 -0.826448
2010-04-15 07:39:30 51°18.625 2°53.612 16.6305 1.759321 12.794473 -0.826448
2010-04-15 07:39:35 51°18.633 2°53.635 16.644 1.759111 12.79616 -0.861272
2010-04-15 07:39:40 51°18.641 2°53.659 16.6244 1.759321 12.799258 -0.861272
2010-04-15 07:39:45 51°18.649 2°53.682 16.6254 1.758796 12.796299 -0.861272
2010-04-15 07:39:50 51°18.656 2°53.706 16.6335 1.758796 12.796299 -0.861272
2010-04-15 07:39:55 51°18.664 2°53.729 16.6415 1.759111 12.797596 -0.826448
2010-04-15 07:40:00 51°18.671 2°53.753 16.6407 1.758901 12.796413 -0.826448
2010-04-15 07:40:05 51°18.679 2°53.776 16.6392 1.759216 12.800103 -0.826448
2010-04-15 07:40:10 51°18.687 2°53.799 16.6412 1.759321 12.799498 -0.861272
2010-04-15 07:40:15 51°18.694 2°53.823 16.6366 1.758796 12.795103 -0.861272
2010-04-15 07:40:20 51°18.702 2°53.846 16.6392 1.758796 12.795103 -0.861272
2010-04-15 07:40:26 51°18.711 2°53.874 16.6323 1.758691 12.793315 -0.861272
2010-04-15 07:40:30 51°18.717 2°53.893 16.6394 1.758901 12.794977 -0.861272
2010-04-15 07:40:35 51°18.725 2°53.916 16.6444 1.759216 12.799385 -0.861272
2010-04-15 07:40:40 51°18.732 2°53.939 16.6452 1.758796 12.797257 -0.826448
2010-04-15 07:40:46 51°18.742 2°53.967 16.6522 1.759426 12.798654 -0.826448
2010-04-15 07:40:50 51°18.748 2°53.986 16.655 1.759426 12.798654 -0.826448
2010-04-15 07:40:55 51°18.755 2°54.01 16.6406 1.759006 12.797722 -0.861272
2010-04-15 07:41:00 51°18.763 2°54.033 16.6556 1.758796 12.796299 -0.861272
2010-04-15 07:41:05 51°18.771 2°54.056 16.6575 1.759111 12.795921 -0.896096
2010-04-15 07:41:10 51°18.778 2°54.08 16.6555 1.75827 12.789273 -0.896096
2010-04-15 07:41:15 51°18.786 2°54.103 16.6441 1.759111 12.791616 -0.861272
2010-04-15 07:41:20 51°18.793 2°54.126 16.6517 1.759111 12.791616 -0.861272
2010-04-15 07:41:25 51°18.801 2°54.15 16.6586 1.75869 12.788293 -0.826448
2010-04-15 07:41:30 51°18.809 2°54.173 16.6652 1.75869 12.788054 -0.861272
2010-04-15 07:41:35 51°18.816 2°54.197 16.6486 1.758375 12.789148 -0.826448
2010-04-15 07:41:40 51°18.824 2°54.22 16.6499 1.759111 12.794007 -0.896096
2010-04-15 07:41:45 51°18.832 2°54.244 16.6543 1.759216 12.796752 -0.861272
2010-04-15 07:41:50 51°18.84 2°54.268 16.6533 1.759216 12.796752 -0.861272
2010-04-15 07:41:55 51°18.847 2°54.292 16.6649 1.759006 12.792698 -0.861272
2010-04-15 07:42:00 51°18.854 2°54.316 16.6549 1.758691 12.793793 -0.826448
2010-04-15 07:42:05 51°18.86 2°54.341 16.6541 1.758165 12.791552 -0.861272
2010-04-15 07:42:10 51°18.867 2°54.365 16.6726 1.758166 12.792987 -0.826448
2010-04-15 07:42:15 51°18.873 2°54.39 16.6774 1.758376 12.792018 -0.826448
2010-04-15 07:42:20 51°18.879 2°54.415 16.6749 1.758376 12.792018 -0.826448
2010-04-15 07:42:26 51°18.887 2°54.444 16.6841 1.759006 12.794373 -0.861272
2010-04-15 07:42:30 51°18.892 2°54.464 16.6803 1.758165 12.789638 -0.826448
2010-04-15 07:42:35 51°18.899 2°54.489 16.6795 1.75827 12.788556 -0.861272
2010-04-15 07:42:40 51°18.905 2°54.513 16.667 1.758796 12.792471 -0.826448
2010-04-15 07:42:46 51°18.913 2°54.543 16.6709 1.758165 12.78916 -0.861272
2010-04-15 07:42:50 51°18.918 2°54.563 16.6732 1.758165 12.78916 -0.861272
2010-04-15 07:42:55 51°18.924 2°54.587 16.6707 1.75806 12.787611 -0.826448
2010-04-15 07:43:00 51°18.931 2°54.612 16.6578 1.758586 12.79081 -0.826448
2010-04-15 07:43:06 51°18.938 2°54.642 16.6798 1.758165 12.788681 -0.861272
2010-04-15 07:43:10 51°18.943 2°54.662 16.6751 1.757955 12.787976 -0.861272
2010-04-15 07:43:15 51°18.95 2°54.686 16.6949 1.757955 12.787498 -0.861272
2010-04-15 07:43:20 51°18.955 2°54.711 16.6669 1.757955 12.787498 -0.861272
2010-04-15 07:43:25 51°18.963 2°54.735 16.6877 1.75806 12.790242 -0.861272
2010-04-15 07:43:30 51°18.968 2°54.759 16.6827 1.75785 12.790254 -0.861272
2010-04-15 07:43:35 51°18.975 2°54.783 16.6893 1.75806 12.791199 -0.861272
2010-04-15 07:43:40 51°18.981 2°54.808 16.6803 1.758376 12.791778 -0.826448
2010-04-15 07:43:45 51°18.988 2°54.832 16.6788 1.758481 12.791892 -0.861272
2010-04-15 07:43:50 51°18.995 2°54.856 16.6837 1.758481 12.791892 -0.861272
2010-04-15 07:43:55 51°19.001 2°54.881 16.6767 1.758165 12.791312 -0.826448
2010-04-15 07:44:00 51°19.008 2°54.905 16.6861 1.75848 12.7895 -0.826448
2010-04-15 07:44:05 51°19.014 2°54.929 16.6875 1.75827 12.786643 -0.861272
2010-04-15 07:44:10 51°19.02 2°54.954 16.6832 1.757955 12.784868 -0.826448
2010-04-15 07:44:15 51°19.026 2°54.978 16.6783 1.75806 12.786177 -0.861272
2010-04-15 07:44:20 51°19.033 2°55.002 16.6861 1.75806 12.786177 -0.861272
2010-04-15 07:44:25 51°19.039 2°55.026 16.6894 1.758165 12.787008 -0.826448
2010-04-15 07:44:30 51°19.046 2°55.05 16.7003 1.758586 12.791288 -0.826448
2010-04-15 07:44:35 51°19.051 2°55.075 16.6951 1.75764 12.786917 -0.826448
2010-04-15 07:44:40 51°19.058 2°55.099 16.6902 1.75827 12.788556 -0.826448
2010-04-15 07:44:45 51°19.064 2°55.123 16.7013 1.757745 12.786314 -0.826448
2010-04-15 07:44:50 51°19.07 2°55.148 16.691 1.757745 12.786314 -0.826448
2010-04-15 07:44:55 51°19.077 2°55.172 16.695 1.757955 12.785824 -0.861272
2010-04-15 07:45:00 51°19.083 2°55.196 16.697 1.757535 12.781306 -0.861272
2010-04-15 07:45:06 51°19.091 2°55.225 16.7004 1.75806 12.784982 -0.861272
2010-04-15 07:45:10 51°19.096 2°55.244 16.7099 1.757325 12.7806 -0.861272
2010-04-15 07:45:15 51°19.102 2°55.268 16.7029 1.75785 12.783081 -0.826448
2010-04-15 07:45:20 51°19.108 2°55.293 16.7096 1.75785 12.783081 -0.826448
2010-04-15 07:45:25 51°19.115 2°55.317 16.7131 1.75764 12.784527 -0.861272
2010-04-15 07:45:30 51°19.121 2°55.341 16.6873 1.75743 12.783104 -0.826448
2010-04-15 07:45:35 51°19.128 2°55.365 16.7065 1.757955 12.785585 -0.861272
2010-04-15 07:45:40 51°19.134 2°55.39 16.7068 1.757325 12.784902 -0.826448
2010-04-15 07:45:45 51°19.14 2°55.414 16.6939 1.75785 12.786906 -0.861272
2010-04-15 07:45:50 51°19.147 2°55.438 16.7014 1.75785 12.786906 -0.861272
2010-04-15 07:45:55 51°19.154 2°55.462 16.7166 1.757955 12.789172 -0.826448
2010-04-15 07:46:00 51°19.16 2°55.487 16.7087 1.757535 12.786804 -0.861272
2010-04-15 07:46:05 51°19.166 2°55.511 16.7054 1.75743 12.78406 -0.861272
2010-04-15 07:46:10 51°19.173 2°55.535 16.7066 1.757535 12.782979 -0.826448
2010-04-15 07:46:15 51°19.179 2°55.56 16.7156 1.75785 12.784754 -0.826448
2010-04-15 07:46:20 51°19.186 2°55.585 16.7115 1.75785 12.784754 -0.826448
2010-04-15 07:46:25 51°19.192 2°55.61 16.7074 1.757325 12.781078 -0.826448
2010-04-15 07:46:30 51°19.199 2°55.634 16.7175 1.756905 12.777038 -0.826448
2010-04-15 07:46:35 51°19.205 2°55.659 16.7088 1.757325 12.779405 -0.861272
2010-04-15 07:46:40 51°19.212 2°55.683 16.7064 1.75743 12.779997 -0.861272
2010-04-15 07:46:45 51°19.218 2°55.707 16.7218 1.7568 12.777401 -0.826448
2010-04-15 07:46:50 51°19.224 2°55.731 16.7138 1.7568 12.777401 -0.826448
2010-04-15 07:46:55 51°19.231 2°55.755 16.7187 1.75743 12.781192 -0.861272
2010-04-15 07:47:00 51°19.237 2°55.78 16.7108 1.7568 12.779313 -0.826448
2010-04-15 07:47:06 51°19.245 2°55.809 16.7201 1.757115 12.779894 -0.861272
2010-04-15 07:47:10 51°19.25 2°55.829 16.7194 1.757115 12.780133 -0.861272
2010-04-15 07:47:15 51°19.257 2°55.853 16.7195 1.75722 12.780247 -0.826448
2010-04-15 07:47:20 51°19.263 2°55.877 16.7186 1.75722 12.780247 -0.826448
2010-04-15 07:47:26 51°19.271 2°55.905 16.7315 1.757535 12.782023 -0.826448
2010-04-15 07:47:30 51°19.276 2°55.925 16.7143 1.75659 12.775978 -0.826448
2010-04-15 07:47:35 51°19.282 2°55.949 16.7133 1.757325 12.779405 -0.861272
2010-04-15 07:47:40 51°19.289 2°55.974 16.721 1.75722 12.777858 -0.826448
2010-04-15 07:47:45 51°19.295 2°55.998 16.7289 1.7568 12.776924 -0.826448
2010-04-15 07:47:50 51°19.301 2°56.022 16.7196 1.7568 12.776924 -0.826448
2010-04-15 07:47:55 51°19.308 2°56.046 16.7281 1.756905 12.777038 -0.861272
2010-04-15 07:48:00 51°19.313 2°56.07 16.7305 1.756905 12.776321 -0.861272
2010-04-15 07:48:05 51°19.32 2°56.094 16.7317 1.75722 12.780486 -0.826448
2010-04-15 07:48:10 51°19.326 2°56.118 16.7306 1.75659 12.778368 -0.861272
2010-04-15 07:48:15 51°19.332 2°56.142 16.7394 1.7568 12.780986 -0.826448
2010-04-15 07:48:20 51°19.338 2°56.167 16.7367 1.7568 12.780986 -0.826448
2010-04-15 07:48:25 51°19.343 2°56.192 16.7526 1.756905 12.782534 -0.896096
2010-04-15 07:48:30 51°19.347 2°56.217 16.7433 1.75701 12.782887 -0.861272
2010-04-15 07:48:35 51°19.353 2°56.242 16.7474 1.7568 12.779552 -0.861272
2010-04-15 07:48:40 51°19.358 2°56.266 16.755 1.756905 12.778471 -0.861272
2010-04-15 07:48:45 51°19.363 2°56.291 16.758 1.7568 12.775252 -0.861272
2010-04-15 07:48:50 51°19.368 2°56.316 16.7482 1.7568 12.775252 -0.861272
2010-04-15 07:48:55 51°19.373 2°56.341 16.7355 1.756695 12.774421 -0.791624
2010-04-15 07:49:00 51°19.378 2°56.366 16.7493 1.7568 12.775729 -0.861272
2010-04-15 07:49:05 51°19.383 2°56.391 16.7513 1.756485 12.774431 -0.826448
2010-04-15 07:49:10 51°19.388 2°56.416 16.7362 1.7568 12.776207 -0.861272
2010-04-15 07:49:15 51°19.394 2°56.441 16.7525 1.756485 12.775148 -0.826448
2010-04-15 07:49:20 51°19.398 2°56.467 16.7315 1.756485 12.775148 -0.826448
2010-04-15 07:49:26 51°19.405 2°56.496 16.7525 1.756485 12.77682 -0.861272
2010-04-15 07:49:30 51°19.408 2°56.517 16.7472 1.75617 12.773849 -0.826448
2010-04-15 07:49:35 51°19.414 2°56.542 16.7615 1.75701 12.777391 -0.896096
2010-04-15 07:49:40 51°19.419 2°56.567 16.7534 1.75638 12.773361 -0.861272
2010-04-15 07:49:45 51°19.425 2°56.592 16.7628 1.756275 12.773486 -0.861272
2010-04-15 07:49:50 51°19.43 2°56.617 16.7582 1.756275 12.773486 -0.861272
2010-04-15 07:49:55 51°19.436 2°56.641 16.7565 1.75638 12.771929 -0.861272
2010-04-15 07:50:00 51°19.441 2°56.666 16.7622 1.75659 12.77359 -0.826448
2010-04-15 07:50:04 51°19.445 2°56.686 16.7614 1.7568 12.776685 -0.861272
2010-04-15 07:50:10 51°19.452 2°56.715 16.7595 1.756485 12.773715 -0.826448
2010-04-15 07:50:15 51°19.456 2°56.74 16.7719 1.75638 12.773361 -0.861272
2010-04-15 07:50:20 51°19.462 2°56.764 16.7587 1.75638 12.773361 -0.861272
2010-04-15 07:50:24 51°19.466 2°56.784 16.7707 1.756485 12.774431 -0.861272
2010-04-15 07:50:30 51°19.472 2°56.814 16.7657 1.756275 12.774919 -0.861272
2010-04-15 07:50:35 51°19.477 2°56.838 16.7668 1.756695 12.778721 -0.861272
2010-04-15 07:50:40 51°19.482 2°56.863 16.7591 1.75659 12.776695 -0.896096
2010-04-15 07:50:45 51°19.488 2°56.887 16.7669 1.75575 12.767183 -0.861272
2010-04-15 07:50:50 51°19.491 2°56.912 16.7424 1.75575 12.767183 -0.861272
2010-04-15 07:50:55 51°19.497 2°56.936 16.7655 1.757115 12.776311 -0.826448
2010-04-15 07:51:00 51°19.502 2°56.961 16.7556 1.75596 12.765265 -0.861272
2010-04-15 07:51:05 51°19.507 2°56.985 16.7802 1.75638 12.76644 -0.826448
2010-04-15 07:51:10 51°19.512 2°57.009 16.7625 1.756275 12.768234 -0.861272
2010-04-15 07:51:15 51°19.518 2°57.033 16.7654 1.75617 12.767403 -0.861272
2010-04-15 07:51:20 51°19.521 2°57.058 16.7517 1.75617 12.767403 -0.861272
2010-04-15 07:51:24 51°19.527 2°57.077 16.7795 1.75701 12.778585 -0.861272
2010-04-15 07:51:30 51°19.532 2°57.106 16.7627 1.75596 12.771232 -0.861272
2010-04-15 07:51:35 51°19.538 2°57.13 16.7854 1.756695 12.773466 -0.861272
2010-04-15 07:51:40 51°19.542 2°57.155 16.7718 1.75617 12.772177 -0.826448
2010-04-15 07:51:45 51°19.548 2°57.179 16.77 1.756275 12.770859 -0.826448
2010-04-15 07:51:50 51°19.553 2°57.204 16.7755 1.756275 12.770859 -0.826448
2010-04-15 07:51:55 51°19.558 2°57.228 16.7721 1.756695 12.777287 -0.861272
2010-04-15 07:52:00 51°19.563 2°57.253 16.78 1.756065 12.773496 -0.826448
2010-04-15 07:52:05 51°19.569 2°57.277 16.7754 1.75617 12.776477 -0.826448
2010-04-15 07:52:10 51°19.574 2°57.302 16.7834 1.756065 12.778753 -0.861272
2010-04-15 07:52:15 51°19.579 2°57.327 16.7852 1.756275 12.78209 -0.861272
2010-04-15 07:52:20 51°19.584 2°57.352 16.7867 1.756275 12.78209 -0.861272
2010-04-15 07:52:25 51°19.59 2°57.377 16.7975 1.756275 12.781373 -0.896096
2010-04-15 07:52:30 51°19.595 2°57.402 16.7784 1.75596 12.779357 -0.861272
2010-04-15 07:52:35 51°19.6 2°57.427 16.7905 1.75596 12.778639 -0.861272
2010-04-15 07:52:40 51°19.605 2°57.451 16.7836 1.75596 12.777444 -0.861272
2010-04-15 07:52:44 51°19.61 2°57.471 16.7951 1.75575 12.775064 -0.826448
2010-04-15 07:52:50 51°19.616 2°57.501 16.7837 1.75575 12.775064 -0.826448
2010-04-15 07:52:55 51°19.621 2°57.526 16.7785 1.75575 12.772914 -0.861272
2010-04-15 07:53:00 51°19.627 2°57.551 16.7874 1.75596 12.771948 -0.826448
2010-04-15 07:53:04 51°19.631 2°57.571 16.7815 1.75554 12.770296 -0.826448
2010-04-15 07:53:10 51°19.638 2°57.602 16.7784 1.75596 12.770277 -0.826448
2010-04-15 07:53:15 51°19.643 2°57.627 16.789 1.755225 12.767326 -0.861272
2010-04-15 07:53:20 51°19.648 2°57.653 16.7902 1.755225 12.767326 -0.861272
2010-04-15 07:53:24 51°19.653 2°57.673 16.8123 1.75617 12.771222 -0.826448
2010-04-15 07:53:30 51°19.659 2°57.704 16.7935 1.755855 12.772789 -0.861272
2010-04-15 07:53:35 51°19.664 2°57.729 16.8052 1.755435 12.767794 -0.861272
2010-04-15 07:53:40 51°19.669 2°57.755 16.7844 1.75596 12.775532 -0.861272
2010-04-15 07:53:45 51°19.675 2°57.78 16.805 1.755225 12.772342 -0.861272
2010-04-15 07:53:51 51°19.682 2°57.81 16.7931 1.755225 12.772342 -0.861272
2010-04-15 07:53:55 51°19.686 2°57.831 16.789 1.75659 12.776217 -0.861272
2010-04-15 07:54:00 51°19.692 2°57.856 16.7966 1.755855 12.771118 -0.861272
2010-04-15 07:54:05 51°19.697 2°57.882 16.7906 1.75491 12.762446 -0.826448
2010-04-15 07:54:11 51°19.704 2°57.912 16.818 1.755435 12.762783 -0.826448
2010-04-15 07:54:15 51°19.708 2°57.933 16.8135 1.755435 12.763498 -0.861272
2010-04-15 07:54:20 51°19.714 2°57.958 16.7919 1.755435 12.763498 -0.861272
2010-04-15 07:54:25 51°19.719 2°57.983 16.802 1.75554 12.767909 -0.826448
2010-04-15 07:54:30 51°19.725 2°58.008 16.808 1.755645 12.768978 -0.861272
2010-04-15 07:54:35 51°19.731 2°58.034 16.8078 1.755435 12.769227 -0.826448
2010-04-15 07:54:40 51°19.736 2°58.059 16.8165 1.75575 12.771958 -0.826448
2010-04-15 07:54:45 51°19.742 2°58.084 16.8233 1.754805 12.766151 -0.861272
2010-04-15 07:54:51 51°19.749 2°58.114 16.8054 1.754805 12.766151 -0.861272
2010-04-15 07:54:55 51°19.753 2°58.134 16.8062 1.755435 12.77066 -0.896096
2010-04-15 07:55:00 51°19.758 2°58.159 16.7944 1.755645 12.773994 -0.861272
2010-04-15 07:55:05 51°19.765 2°58.184 16.8148 1.755435 12.771137 -0.826448
2010-04-15 07:55:10 51°19.77 2°58.209 16.8047 1.75533 12.772934 -0.861272
2010-04-15 07:55:15 51°19.776 2°58.234 16.8381 1.755015 12.771396 -0.861272
2010-04-15 07:55:20 51°19.781 2°58.26 16.8163 1.755015 12.771396 -0.861272
2010-04-15 07:55:25 51°19.787 2°58.284 16.8228 1.755435 12.774722 -0.826448
2010-04-15 07:55:30 51°19.791 2°58.311 16.8182 1.75491 12.770087 -0.826448
2010-04-15 07:55:35 51°19.798 2°58.335 16.8362 1.755225 12.767803 -0.861272
2010-04-15 07:55:40 51°19.802 2°58.36 16.8036 1.75596 12.776488 -0.826448
2010-04-15 07:55:44 51°19.808 2°58.38 16.8399 1.754595 12.765683 -0.861272
2010-04-15 07:55:50 51°19.813 2°58.41 16.8284 1.754595 12.765683 -0.861272
2010-04-15 07:55:55 51°19.819 2°58.436 16.8354 1.75554 12.770535 -0.826448
2010-04-15 07:56:00 51°19.825 2°58.461 16.8406 1.75533 12.765054 -0.861272
2010-04-15 07:56:05 51°19.83 2°58.485 16.8453 1.754805 12.760661 -0.861272
2010-04-15 07:56:10 51°19.836 2°58.51 16.8311 1.755435 12.765884 -0.826448
2010-04-15 07:56:15 51°19.842 2°58.535 16.8221 1.75491 12.762924 -0.826448
2010-04-15 07:56:20 51°19.848 2°58.56 16.8174 1.75491 12.762924 -0.826448
2010-04-15 07:56:25 51°19.853 2°58.585 16.8297 1.75491 12.765072 -0.861272
2010-04-15 07:56:30 51°19.859 2°58.61 16.8483 1.755015 12.765903 -0.826448
2010-04-15 07:56:35 51°19.864 2°58.635 16.8467 1.75491 12.769132 -0.826448
2010-04-15 07:56:40 51°19.869 2°58.66 16.8416 1.7547 12.769858 -0.861272
2010-04-15 07:56:45 51°19.874 2°58.685 16.8281 1.755435 12.778308 -0.826448
2010-04-15 07:56:50 51°19.88 2°58.709 16.8557 1.755435 12.778308 -0.826448
2010-04-15 07:56:55 51°19.885 2°58.735 16.8238 1.75428 12.769878 -0.861272
2010-04-15 07:57:00 51°19.891 2°58.759 16.8545 1.75491 12.771043 -0.861272
2010-04-15 07:57:04 51°19.894 2°58.779 16.8296 1.75428 12.768922 -0.861272
2010-04-15 07:57:10 51°19.902 2°58.809 16.8495 1.754595 12.767832 -0.826448
2010-04-15 07:57:15 51°19.907 2°58.834 16.8449 1.755015 12.767574 -0.861272
2010-04-15 07:57:20 51°19.912 2°58.859 16.8533 1.755015 12.767574 -0.861272
2010-04-15 07:57:25 51°19.917 2°58.884 16.8574 1.75512 12.767928 -0.861272
2010-04-15 07:57:30 51°19.923 2°58.909 16.8518 1.754595 12.765444 -0.826448
2010-04-15 07:57:35 51°19.928 2°58.934 16.8441 1.75449 12.764135 -0.861272
2010-04-15 07:57:40 51°19.933 2°58.958 16.857 1.75449 12.764374 -0.861272
2010-04-15 07:57:45 51°19.938 2°58.983 16.8436 1.754805 12.768539 -0.826448
2010-04-15 07:57:50 51°19.944 2°59.008 16.8512 1.754805 12.768539 -0.826448
2010-04-15 07:57:55 51°19.949 2°59.032 16.8479 1.754385 12.766648 -0.826448
2010-04-15 07:58:00 51°19.955 2°59.057 16.8539 1.754805 12.768778 -0.826448
2010-04-15 07:58:05 51°19.961 2°59.081 16.8632 1.754805 12.77069 -0.861272
2010-04-15 07:58:10 51°19.966 2°59.106 16.8264 1.754805 12.771885 -0.896096
2010-04-15 07:58:15 51°19.973 2°59.129 16.8637 1.753965 12.7638 -0.861272
2010-04-15 07:58:20 51°19.977 2°59.154 16.8586 1.753965 12.7638 -0.861272
2010-04-15 07:58:25 51°19.983 2°59.178 16.8618 1.75491 12.771282 -0.861272
2010-04-15 07:58:31 51°19.99 2°59.208 16.8506 1.754385 12.771188 -0.861272
2010-04-15 07:58:35 51°19.994 2°59.227 16.8556 1.75428 12.767727 -0.826448
2010-04-15 07:58:40 51°19.999 2°59.252 16.8639 1.754175 12.765702 -0.826448
2010-04-15 07:58:45 51°20.004 2°59.276 16.8642 1.754595 12.767116 -0.861272
2010-04-15 07:58:50 51°20.01 2°59.3 16.8726 1.754595 12.767116 -0.861272
2010-04-15 07:58:55 51°20.014 2°59.326 16.8743 1.753965 12.76189 -0.861272
2010-04-15 07:59:00 51°20.019 2°59.351 16.8735 1.75428 12.764144 -0.826448
2010-04-15 07:59:05 51°20.025 2°59.375 16.8686 1.754385 12.764737 -0.861272
2010-04-15 07:59:10 51°20.031 2°59.4 16.8534 1.754385 12.766648 -0.826448
2010-04-15 07:59:15 51°20.036 2°59.424 16.8658 1.75407 12.766781 -0.861272
2010-04-15 07:59:20 51°20.041 2°59.449 16.8683 1.75407 12.766781 -0.861272
2010-04-15 07:59:24 51°20.046 2°59.468 16.8601 1.754385 12.767125 -0.861272
2010-04-15 07:59:30 51°20.052 2°59.498 16.8629 1.753755 12.763571 -0.861272
2010-04-15 07:59:35 51°20.058 2°59.522 16.8781 1.75428 12.764144 -0.861272
2010-04-15 07:59:40 51°20.062 2°59.547 16.8359 1.754175 12.76403 -0.861272
2010-04-15 07:59:45 51°20.068 2°59.571 16.8665 1.753965 12.76189 -0.826448
2010-04-15 07:59:50 51°20.073 2°59.596 16.8639 1.753965 12.76189 -0.826448
2010-04-15 07:59:55 51°20.079 2°59.621 16.876 1.754595 12.767355 -0.826448
2010-04-15 08:00:00 51°20.083 2°59.646 16.8579 1.753965 12.764517 -0.826448
2010-04-15 08:00:05 51°20.089 2°59.669 16.8736 1.754805 12.768062 -0.826448
2010-04-15 08:00:10 51°20.094 2°59.695 16.851 1.75407 12.763915 -0.826448
2010-04-15 08:00:15 51°20.1 2°59.718 16.8785 1.75407 12.760572 -0.861272
2010-04-15 08:00:20 51°20.105 2°59.744 16.8655 1.75407 12.760572 -0.861272
2010-04-15 08:00:25 51°20.11 2°59.768 16.8733 1.75449 12.763896 -0.861272
2010-04-15 08:00:30 51°20.115 2°59.793 16.858 1.75386 12.75891 -0.861272
2010-04-15 08:00:35 51°20.12 2°59.817 16.8824 1.754175 12.760926 -0.826448
2010-04-15 08:00:40 51°20.125 2°59.842 16.88 1.753755 12.759034 -0.861272
2010-04-15 08:00:45 51°20.13 2°59.867 16.8725 1.753334 12.757619 -0.861272
2010-04-15 08:00:51 51°20.137 2°59.897 16.8928 1.753334 12.757619 -0.861272
2010-04-15 08:00:55 51°20.141 2°59.917 16.8885 1.753755 12.762376 -0.826448
2010-04-15 08:01:00 51°20.146 2°59.942 16.8836 1.75407 12.76487 -0.861272
2010-04-15 08:01:05 51°20.151 2°59.966 16.8928 1.753965 12.76595 -0.826448
2010-04-15 08:01:10 51°20.156 2°59.991 16.8795 1.753755 12.767155 -0.861272
2010-04-15 08:01:15 51°20.162 3°0.016 16.8749 1.75386 12.768464 -0.826448
2010-04-15 08:01:20 51°20.167 3°0.041 16.8855 1.75386 12.768464 -0.826448
2010-04-15 08:01:25 51°20.173 3°0.065 16.899 1.75386 12.767508 -0.861272
2010-04-15 08:01:30 51°20.178 3°0.09 16.8877 1.753755 12.766438 -0.861272
2010-04-15 08:01:35 51°20.184 3°0.114 16.8667 1.753965 12.765711 -0.826448
2010-04-15 08:01:40 51°20.189 3°0.139 16.8892 1.753545 12.763819 -0.861272
2010-04-15 08:01:45 51°20.195 3°0.164 16.8805 1.75407 12.764154 -0.861272
2010-04-15 08:01:50 51°20.2 3°0.189 16.9 1.75407 12.764154 -0.861272
2010-04-15 08:01:55 51°20.205 3°0.214 16.9033 1.753755 12.76166 -0.861272
2010-04-15 08:02:00 51°20.211 3°0.239 16.9044 1.75365 12.76059 -0.861272
2010-04-15 08:02:05 51°20.216 3°0.263 16.8916 1.75386 12.761058 -0.861272
2010-04-15 08:02:10 51°20.221 3°0.288 16.9015 1.753334 12.757857 -0.826448
2010-04-15 08:02:15 51°20.227 3°0.313 16.9081 1.753334 12.756187 -0.861272
2010-04-15 08:02:20 51°20.232 3°0.338 16.9122 1.753334 12.756187 -0.861272
2010-04-15 08:02:25 51°20.237 3°0.363 16.9053 1.753544 12.756894 -0.861272
2010-04-15 08:02:30 51°20.243 3°0.387 16.8872 1.75386 12.759388 -0.826448
2010-04-15 08:02:35 51°20.249 3°0.412 16.9079 1.753544 12.756894 -0.861272
2010-04-15 08:02:40 51°20.254 3°0.436 16.8997 1.753649 12.757725 -0.861272
2010-04-15 08:02:44 51°20.259 3°0.456 16.8992 1.753229 12.757026 -0.861272
2010-04-15 08:02:50 51°20.265 3°0.486 16.8942 1.753229 12.757026 -0.861272
2010-04-15 08:02:55 51°20.27 3°0.511 16.8861 1.753019 12.756557 -0.826448
2010-04-15 08:03:00 51°20.276 3°0.535 16.9187 1.753965 12.761173 -0.861272
2010-04-15 08:03:05 51°20.282 3°0.56 16.8981 1.75386 12.762969 -0.861272
2010-04-15 08:03:10 51°20.287 3°0.584 16.9095 1.753334 12.758812 -0.826448
2010-04-15 08:03:15 51°20.293 3°0.609 16.9089 1.753439 12.759166 -0.861272
2010-04-15 08:03:20 51°20.299 3°0.633 16.8923 1.753439 12.759166 -0.861272
2010-04-15 08:03:25 51°20.305 3°0.657 16.901 1.753755 12.762137 -0.861272
2010-04-15 08:03:30 51°20.311 3°0.682 16.907 1.753545 12.76143 -0.826448
2010-04-15 08:03:35 51°20.317 3°0.707 16.9164 1.753229 12.759652 -0.861272
2010-04-15 08:03:40 51°20.322 3°0.732 16.915 1.753335 12.760961 -0.826448
2010-04-15 08:03:45 51°20.328 3°0.757 16.9293 1.753124 12.758582 -0.826448
2010-04-15 08:03:50 51°20.333 3°0.782 16.8933 1.753124 12.758582 -0.826448
2010-04-15 08:03:55 51°20.339 3°0.807 16.909 1.753545 12.76143 -0.861272
2010-04-15 08:04:00 51°20.344 3°0.831 16.9126 1.75344 12.76036 -0.826448
2010-04-15 08:04:05 51°20.35 3°0.856 16.9138 1.753019 12.756796 -0.861272
2010-04-15 08:04:10 51°20.356 3°0.881 16.9159 1.753124 12.755956 -0.861272
2010-04-15 08:04:15 51°20.361 3°0.905 16.9009 1.753544 12.75952 -0.861272
2010-04-15 08:04:20 51°20.367 3°0.931 16.9229 1.753544 12.75952 -0.861272
2010-04-15 08:04:25 51°20.373 3°0.955 16.9105 1.753439 12.757973 -0.861272
2010-04-15 08:04:30 51°20.378 3°0.98 16.8952 1.753229 12.757026 -0.861272
2010-04-15 08:04:35 51°20.384 3°1.005 16.9239 1.753124 12.756911 -0.861272
2010-04-15 08:04:40 51°20.39 3°1.029 16.92 1.753439 12.757973 -0.861272
2010-04-15 08:04:45 51°20.395 3°1.054 16.9082 1.752914 12.755726 -0.861272
2010-04-15 08:04:50 51°20.4 3°1.079 16.9229 1.752914 12.755726 -0.861272
2010-04-15 08:04:55 51°20.406 3°1.104 16.9195 1.75365 12.760112 -0.861272
2010-04-15 08:05:00 51°20.412 3°1.129 16.9191 1.753439 12.759644 -0.826448
2010-04-15 08:05:04 51°20.416 3°1.149 16.9228 1.752914 12.75501 -0.861272
2010-04-15 08:05:10 51°20.423 3°1.179 16.9111 1.753439 12.758927 -0.826448
2010-04-15 08:05:15 51°20.429 3°1.203 16.9227 1.753019 12.756796 -0.826448
2010-04-15 08:05:20 51°20.434 3°1.228 16.9279 1.753019 12.756796 -0.826448
2010-04-15 08:05:25 51°20.44 3°1.253 16.9232 1.752809 12.755611 -0.826448
2010-04-15 08:05:30 51°20.445 3°1.278 16.904 1.753019 12.757273 -0.861272
2010-04-15 08:05:35 51°20.451 3°1.302 16.9266 1.753229 12.75822 -0.826448
2010-04-15 08:05:40 51°20.456 3°1.326 16.9197 1.752809 12.754895 -0.861272
2010-04-15 08:05:45 51°20.462 3°1.351 16.9242 1.753229 12.756788 -0.826448
2010-04-15 08:05:50 51°20.468 3°1.375 16.9328 1.753229 12.756788 -0.826448
2010-04-15 08:05:55 51°20.474 3°1.4 16.9258 1.753439 12.760121 -0.896096
2010-04-15 08:06:00 51°20.479 3°1.425 16.9257 1.752809 12.756805 -0.826448
2010-04-15 08:06:05 51°20.485 3°1.45 16.9449 1.752914 12.755965 -0.861272
2010-04-15 08:06:10 51°20.49 3°1.475 16.9272 1.752809 12.754656 -0.861272
2010-04-15 08:06:15 51°20.496 3°1.499 16.9261 1.752809 12.755372 -0.861272
2010-04-15 08:06:20 51°20.501 3°1.524 16.9179 1.752809 12.755372 -0.861272
2010-04-15 08:06:25 51°20.507 3°1.548 16.937 1.752809 12.754417 -0.826448
2010-04-15 08:06:30 51°20.512 3°1.573 16.9276 1.752599 12.752755 -0.861272
2010-04-15 08:06:35 51°20.518 3°1.598 16.935 1.753124 12.755956 -0.861272
2010-04-15 08:06:40 51°20.524 3°1.622 16.9308 1.753019 12.754887 -0.861272
2010-04-15 08:06:45 51°20.53 3°1.647 16.9393 1.752704 12.752632 -0.861272
2010-04-15 08:06:50 51°20.535 3°1.672 16.9257 1.752704 12.752632 -0.861272
2010-04-15 08:06:55 51°20.541 3°1.696 16.951 1.753124 12.756672 -0.861272
2010-04-15 08:07:00 51°20.546 3°1.722 16.9424 1.752494 12.754549 -0.826448
2010-04-15 08:07:05 51°20.552 3°1.746 16.9403 1.753124 12.760015 -0.826448
2010-04-15 08:07:10 51°20.556 3°1.771 16.9489 1.752809 12.758954 -0.861272
2010-04-15 08:07:15 51°20.563 3°1.796 16.9412 1.752704 12.758839 -0.861272
2010-04-15 08:07:20 51°20.568 3°1.821 16.9283 1.752704 12.758839 -0.861272
2010-04-15 08:07:25 51°20.576 3°1.844 16.9396 1.752809 12.761582 -0.826448
2010-04-15 08:07:31 51°20.583 3°1.873 16.9073 1.752074 12.752417 -0.861272
2010-04-15 08:07:35 51°20.59 3°1.891 16.9315 1.752809 12.753702 -0.861272
2010-04-15 08:07:40 51°20.596 3°1.915 16.923 1.752389 12.751093 -0.826448
2010-04-15 08:07:45 51°20.605 3°1.937 16.9375 1.752179 12.749907 -0.826448
2010-04-15 08:07:50 51°20.612 3°1.96 16.9292 1.752179 12.749907 -0.826448
2010-04-15 08:07:55 51°20.62 3°1.983 16.9383 1.752809 12.751793 -0.861272
2010-04-15 08:08:00 51°20.629 3°2.006 16.9413 1.752914 12.750716 -0.896096
2010-04-15 08:08:05 51°20.637 3°2.029 16.9195 1.752494 12.7493 -0.861272
2010-04-15 08:08:10 51°20.646 3°2.051 16.9383 1.752704 12.748815 -0.861272
2010-04-15 08:08:15 51°20.653 3°2.074 16.9337 1.752914 12.755249 -0.826448
2010-04-15 08:08:20 51°20.662 3°2.097 16.9466 1.752914 12.755249 -0.826448
2010-04-15 08:08:24 51°20.668 3°2.115 16.9355 1.752284 12.754796 -0.861272
2010-04-15 08:08:30 51°20.678 3°2.143 16.9385 1.752809 12.758476 -0.826448
2010-04-15 08:08:35 51°20.685 3°2.166 16.9366 1.752179 12.758264 -0.826448
2010-04-15 08:08:40 51°20.694 3°2.188 16.9459 1.752494 12.760759 -0.826448
2010-04-15 08:08:45 51°20.702 3°2.211 16.9319 1.75323 12.764908 -0.861272
2010-04-15 08:08:50 51°20.71 3°2.234 16.9475 1.75323 12.764908 -0.861272
2010-04-15 08:08:55 51°20.718 3°2.257 16.9526 1.752389 12.757777 -0.861272
2010-04-15 08:09:00 51°20.726 3°2.28 16.9484 1.753019 12.760378 -0.826448
2010-04-15 08:09:05 51°20.734 3°2.303 16.9269 1.752284 12.756945 -0.826448
2010-04-15 08:09:10 51°20.743 3°2.325 16.9451 1.752389 12.755866 -0.861272
2010-04-15 08:09:15 51°20.751 3°2.349 16.9423 1.752599 12.756813 -0.861272
2010-04-15 08:09:20 51°20.758 3°2.372 16.9438 1.752599 12.756813 -0.861272
2010-04-15 08:09:25 51°20.767 3°2.394 16.953 1.753019 12.758706 -0.861272
2010-04-15 08:09:30 51°20.775 3°2.418 16.9417 1.751969 12.751586 -0.861272
2010-04-15 08:09:35 51°20.783 3°2.44 16.9605 1.752494 12.754549 -0.861272
2010-04-15 08:09:40 51°20.791 3°2.463 16.9676 1.752389 12.756105 -0.826448
2010-04-15 08:09:45 51°20.799 3°2.487 16.946 1.752284 12.756945 -0.861272
2010-04-15 08:09:51 51°20.809 3°2.513 16.9477 1.752284 12.756945 -0.861272
2010-04-15 08:09:55 51°20.815 3°2.532 16.9367 1.751969 12.755645 -0.826448
2010-04-15 08:10:00 51°20.824 3°2.555 16.9623 1.752599 12.759918 -0.861272
2010-04-15 08:10:05 51°20.832 3°2.578 16.9542 1.752389 12.759211 -0.826448
2010-04-15 08:10:10 51°20.84 3°2.601 16.9687 1.752389 12.759688 -0.861272
2010-04-15 08:10:15 51°20.848 3°2.625 16.9616 1.752284 12.757662 -0.861272
2010-04-15 08:10:20 51°20.856 3°2.648 16.9708 1.752284 12.757662 -0.861272
2010-04-15 08:10:25 51°20.864 3°2.671 16.9709 1.752599 12.760874 -0.861272
2010-04-15 08:10:30 51°20.872 3°2.694 16.9547 1.751759 12.759477 -0.826448
2010-04-15 08:10:35 51°20.88 3°2.717 16.9703 1.752179 12.760893 -0.861272
2010-04-15 08:10:40 51°20.889 3°2.74 16.9682 1.752284 12.759096 -0.861272
2010-04-15 08:10:45 51°20.897 3°2.763 16.9698 1.752179 12.75683 -0.826448
2010-04-15 08:10:50 51°20.905 3°2.786 16.9524 1.752179 12.75683 -0.826448
2010-04-15 08:10:55 51°20.914 3°2.809 16.955 1.752179 12.753965 -0.861272
2010-04-15 08:11:00 51°20.922 3°2.832 16.9573 1.752074 12.751462 -0.861272
2010-04-15 08:11:05 51°20.93 3°2.855 16.9604 1.751864 12.752903 -0.861272
2010-04-15 08:11:10 51°20.938 3°2.878 16.964 1.751969 12.753973 -0.861272
2010-04-15 08:11:15 51°20.946 3°2.902 16.9526 1.752179 12.757308 -0.826448
2010-04-15 08:11:20 51°20.955 3°2.925 16.9797 1.752179 12.757308 -0.826448
2010-04-15 08:11:25 51°20.962 3°2.949 16.9715 1.751654 12.753866 -0.896096
2010-04-15 08:11:30 51°20.97 3°2.972 16.9641 1.751969 12.756361 -0.861272
2010-04-15 08:11:35 51°20.978 3°2.996 16.9562 1.751759 12.754698 -0.861272
2010-04-15 08:11:40 51°20.986 3°3.018 16.9759 1.751444 12.748622 -0.826448
2010-04-15 08:11:44 51°20.992 3°3.037 16.9561 1.752389 12.75324 -0.861272
2010-04-15 08:11:50 51°21.002 3°3.065 16.9552 1.752389 12.75324 -0.861272
2010-04-15 08:11:55 51°21.01 3°3.088 16.9682 1.751339 12.748984 -0.896096
2010-04-15 08:12:00 51°21.018 3°3.112 16.9765 1.751759 12.750639 -0.861272
2010-04-15 08:12:05 51°21.026 3°3.135 16.9811 1.752074 12.753849 -0.861272
2010-04-15 08:12:10 51°21.034 3°3.158 16.9732 1.751969 12.755884 -0.896096
2010-04-15 08:12:15 51°21.043 3°3.181 16.9808 1.751759 12.755892 -0.826448
2010-04-15 08:12:20 51°21.051 3°3.205 16.9265 1.751759 12.755892 -0.826448
2010-04-15 08:12:25 51°21.059 3°3.228 16.9372 1.751759 12.757326 -0.826448
2010-04-15 08:12:30 51°21.067 3°3.251 17.0727 1.751759 12.755415 -0.861272
2010-04-15 08:12:35 51°21.075 3°3.274 17.1148 1.752074 12.746452 -0.861272
2010-04-15 08:12:40 51°21.084 3°3.298 17.1359 1.751864 12.745983 -0.826448
2010-04-15 08:12:45 51°21.092 3°3.321 17.1552 1.752389 12.748469 -0.861272
2010-04-15 08:12:50 51°21.1 3°3.344 17.1071 1.752389 12.748469 -0.861272
2010-04-15 08:12:55 51°21.109 3°3.367 17.0939 1.751339 12.745881 -0.861272
2010-04-15 08:13:00 51°21.117 3°3.39 17.085 1.751339 12.748029 -0.861272
2010-04-15 08:13:04 51°21.123 3°3.409 17.0829 1.751759 12.754459 -0.826448
2010-04-15 08:13:10 51°21.134 3°3.437 17.0778 1.751549 12.753751 -0.826448
2010-04-15 08:13:15 51°21.142 3°3.46 17.0755 1.751549 12.754468 -0.826448
2010-04-15 08:13:20 51°21.15 3°3.483 17.0735 1.751549 12.754468 -0.826448
2010-04-15 08:13:24 51°21.156 3°3.502 17.0735 1.751549 12.754706 -0.826448
2010-04-15 08:13:30 51°21.166 3°3.53 17.0709 1.751654 12.755538 -0.826448
2010-04-15 08:13:35 51°21.174 3°3.553 17.071 1.751549 12.75614 -0.791624
2010-04-15 08:13:40 51°21.182 3°3.577 17.0705 1.751654 12.758645 -0.861272
2010-04-15 08:13:45 51°21.19 3°3.6 17.0706 1.751444 12.758654 -0.861272
2010-04-15 08:13:51 51°21.2 3°3.629 17.0712 1.751444 12.758654 -0.861272
2010-04-15 08:13:55 51°21.206 3°3.648 17.0698 1.751444 12.757937 -0.861272
2010-04-15 08:14:00 51°21.214 3°3.671 17.07 1.751654 12.758167 -0.826448
2010-04-15 08:14:05 51°21.223 3°3.694 17.0714 1.751444 12.756264 -0.826448
2010-04-15 08:14:10 51°21.231 3°3.717 17.0702 1.751864 12.756963 -0.861272
2010-04-15 08:14:15 51°21.239 3°3.741 17.0678 1.751339 12.755432 -0.861272
2010-04-15 08:14:20 51°21.248 3°3.763 17.0771 1.751339 12.755432 -0.861272
2010-04-15 08:14:25 51°21.255 3°3.787 17.075 1.751234 12.751733 -0.861272
2010-04-15 08:14:30 51°21.262 3°3.811 17.0835 1.751339 12.750893 -0.861272
2010-04-15 08:14:35 51°21.268 3°3.836 17.0798 1.751654 12.752911 -0.826448
2010-04-15 08:14:40 51°21.275 3°3.861 17.0783 1.751654 12.751956 -0.861272
2010-04-15 08:14:45 51°21.281 3°3.886 17.0819 1.751549 12.751124 -0.861272
2010-04-15 08:14:51 51°21.288 3°3.917 17.0876 1.751549 12.751124 -0.861272
2010-04-15 08:14:55 51°21.293 3°3.936 17.0973 1.751654 12.75315 -0.861272
2010-04-15 08:15:00 51°21.299 3°3.962 17.0811 1.751129 12.752096 -0.861272
2010-04-15 08:15:05 51°21.304 3°3.987 17.0968 1.751339 12.753282 -0.861272
2010-04-15 08:15:10 51°21.31 3°4.013 17.0948 1.750814 12.751272 -0.861272
2010-04-15 08:15:15 51°21.315 3°4.038 17.0964 1.752494 12.759803 -0.861272
2010-04-15 08:15:20 51°21.32 3°4.064 17.1021 1.752494 12.759803 -0.861272
2010-04-15 08:15:25 51°21.325 3°4.089 17.0992 1.751024 12.751264 -0.826448
2010-04-15 08:15:30 51°21.33 3°4.115 17.099 1.751129 12.748753 -0.826448
2010-04-15 08:15:35 51°21.334 3°4.141 17.0944 1.751444 12.752203 -0.861272
2010-04-15 08:15:40 51°21.339 3°4.167 17.1026 1.750814 12.744587 -0.826448
2010-04-15 08:15:44 51°21.342 3°4.187 17.0945 1.751444 12.747429 -0.861272
2010-04-15 08:15:50 51°21.348 3°4.218 17.1025 1.751444 12.747429 -0.861272
2010-04-15 08:15:55 51°21.352 3°4.245 17.1008 1.750919 12.744942 -0.896096
2010-04-15 08:16:00 51°21.357 3°4.27 17.0988 1.751234 12.748629 -0.826448
2010-04-15 08:16:05 51°21.361 3°4.297 17.1039 1.750919 12.749477 -0.861272
2010-04-15 08:16:10 51°21.365 3°4.323 17.0985 1.751234 12.751495 -0.826448
2010-04-15 08:16:15 51°21.369 3°4.349 17.1073 1.751129 12.752335 -0.896096
2010-04-15 08:16:20 51°21.374 3°4.375 17.1063 1.751129 12.752335 -0.896096
2010-04-15 08:16:25 51°21.378 3°4.401 17.1067 1.750604 12.751042 -0.826448
2010-04-15 08:16:30 51°21.383 3°4.427 17.1101 1.750919 12.752343 -0.861272
2010-04-15 08:16:35 51°21.388 3°4.452 17.1073 1.751234 12.755795 -0.861272
2010-04-15 08:16:40 51°21.393 3°4.478 17.0985 1.751129 12.756158 -0.826448
2010-04-15 08:16:45 51°21.399 3°4.503 17.1115 1.750814 12.753184 -0.861272
2010-04-15 08:16:50 51°21.403 3°4.528 17.1019 1.750814 12.753184 -0.861272
2010-04-15 08:16:55 51°21.409 3°4.553 17.1073 1.751129 12.754246 -0.826448
2010-04-15 08:17:00 51°21.414 3°4.579 17.1071 1.751024 12.752697 -0.861272
2010-04-15 08:17:05 51°21.419 3°4.604 17.1119 1.750394 12.747467 -0.861272
2010-04-15 08:17:11 51°21.427 3°4.634 17.1128 1.751024 12.751025 -0.826448
2010-04-15 08:17:15 51°21.43 3°4.655 17.1099 1.750394 12.7489 -0.861272
2010-04-15 08:17:20 51°21.436 3°4.679 17.1227 1.750394 12.7489 -0.861272
2010-04-15 08:17:25 51°21.441 3°4.704 17.1068 1.750184 12.747952 -0.826448
2010-04-15 08:17:30 51°21.447 3°4.729 17.1154 1.751024 12.755087 -0.861272
2010-04-15 08:17:35 51°21.452 3°4.754 17.1133 1.750709 12.752829 -0.826448
2010-04-15 08:17:40 51°21.457 3°4.779 17.1108 1.750814 12.753422 -0.861272
2010-04-15 08:17:45 51°21.463 3°4.804 17.1234 1.750604 12.75128 -0.861272
2010-04-15 08:17:50 51°21.468 3°4.829 17.1145 1.750604 12.75128 -0.861272
2010-04-15 08:17:55 51°21.474 3°4.854 17.1143 1.750709 12.750679 -0.826448
2010-04-15 08:18:00 51°21.479 3°4.879 17.1219 1.751024 12.751025 -0.861272
2010-04-15 08:18:05 51°21.485 3°4.904 17.1281 1.751129 12.753768 -0.861272
2010-04-15 08:18:11 51°21.491 3°4.935 17.1191 1.750709 12.754024 -0.826448
2010-04-15 08:18:15 51°21.496 3°4.954 17.126 1.750919 12.754733 -0.861272
2010-04-15 08:18:20 51°21.501 3°4.98 17.1248 1.750919 12.754733 -0.861272
2010-04-15 08:18:25 51°21.507 3°5.004 17.1299 1.750604 12.75367 -0.861272
2010-04-15 08:18:30 51°21.512 3°5.03 17.1201 1.750289 12.751652 -0.861272
2010-04-15 08:18:35 51°21.518 3°5.054 17.1296 1.751234 12.757229 -0.861272
2010-04-15 08:18:40 51°21.523 3°5.08 17.1216 1.750499 12.751882 -0.861272
2010-04-15 08:18:45 51°21.529 3°5.104 17.1304 1.750709 12.749962 -0.861272
2010-04-15 08:18:50 51°21.534 3°5.13 17.128 1.750709 12.749962 -0.861272
2010-04-15 08:18:55 51°21.54 3°5.155 17.1292 1.750394 12.7489 -0.826448
2010-04-15 08:19:00 51°21.545 3°5.18 17.1312 1.750394 12.747944 -0.861272
2010-04-15 08:19:06 51°21.552 3°5.209 17.1348 1.750604 12.751758 -0.861272
2010-04-15 08:19:10 51°21.556 3°5.23 17.1311 1.750499 12.753077 -0.826448
2010-04-15 08:19:15 51°21.562 3°5.255 17.1268 1.750814 12.754617 -0.861272
2010-04-15 08:19:20 51°21.567 3°5.28 17.1292 1.750814 12.754617 -0.861272
2010-04-15 08:19:25 51°21.573 3°5.304 17.1282 1.750184 12.750341 -0.826448
2010-04-15 08:19:30 51°21.578 3°5.33 17.1323 1.750709 12.750918 -0.826448
2010-04-15 08:19:35 51°21.583 3°5.354 17.1341 1.750709 12.749246 -0.861272
2010-04-15 08:19:40 51°21.588 3°5.379 17.1264 1.750184 12.746519 -0.826448
2010-04-15 08:19:45 51°21.594 3°5.404 17.1351 1.750289 12.746396 -0.861272
2010-04-15 08:19:50 51°21.599 3°5.429 17.13 1.750289 12.746396 -0.861272
2010-04-15 08:19:55 51°21.605 3°5.454 17.1341 1.750394 12.749616 -0.861272
2010-04-15 08:20:00 51°21.61 3°5.479 17.1309 1.750394 12.750811 -0.861272
2010-04-15 08:20:05 51°21.616 3°5.504 17.1435 1.750814 12.754139 -0.826448
2010-04-15 08:20:10 51°21.621 3°5.529 17.1371 1.749974 12.751784 -0.826448
2010-04-15 08:20:15 51°21.627 3°5.553 17.1362 1.750499 12.751404 -0.861272
2010-04-15 08:20:20 51°21.632 3°5.578 17.1371 1.750499 12.751404 -0.861272
2010-04-15 08:20:25 51°21.639 3°5.603 17.1371 1.750604 12.757017 -0.861272
2010-04-15 08:20:31 51°21.645 3°5.634 17.1352 1.750079 12.749031 -0.826448
2010-04-15 08:20:35 51°21.65 3°5.653 17.1464 1.751129 12.758788 -0.861272
2010-04-15 08:20:40 51°21.655 3°5.679 17.1364 1.750394 12.751289 -0.896096
2010-04-15 08:20:45 51°21.661 3°5.703 17.1562 1.750709 12.749246 -0.861272
2010-04-15 08:20:50 51°21.665 3°5.729 17.138 1.750709 12.749246 -0.861272
2010-04-15 08:20:55 51°21.671 3°5.754 17.1388 1.750814 12.749361 -0.826448
2010-04-15 08:21:00 51°21.677 3°5.779 17.1475 1.750604 12.747459 -0.861272
2010-04-15 08:21:05 51°21.682 3°5.804 17.1445 1.750499 12.748299 -0.861272
2010-04-15 08:21:10 51°21.687 3°5.83 17.1463 1.750394 12.751528 -0.861272
2010-04-15 08:21:15 51°21.693 3°5.855 17.147 1.750394 12.753201 -0.826448
2010-04-15 08:21:20 51°21.698 3°5.88 17.1463 1.750394 12.753201 -0.826448
2010-04-15 08:21:25 51°21.704 3°5.905 17.1554 1.750499 12.755228 -0.861272
2010-04-15 08:21:31 51°21.711 3°5.936 17.1488 1.750709 12.757132 -0.861272
2010-04-15 08:21:35 51°21.715 3°5.956 17.143 1.750499 12.756185 -0.861272
2010-04-15 08:21:40 51°21.721 3°5.981 17.1516 1.750709 12.756893 -0.861272
2010-04-15 08:21:45 51°21.726 3°6.006 17.1519 1.750289 12.75452 -0.861272
2010-04-15 08:21:50 51°21.732 3°6.032 17.1544 1.750289 12.75452 -0.861272
2010-04-15 08:21:55 51°21.738 3°6.057 17.1513 1.750394 12.75607 -0.826448
2010-04-15 08:22:00 51°21.743 3°6.082 17.155 1.750289 12.754281 -0.826448
2010-04-15 08:22:05 51°21.749 3°6.107 17.1653 1.750394 12.755113 -0.861272
2010-04-15 08:22:10 51°21.754 3°6.133 17.1494 1.750499 12.758098 -0.826448
2010-04-15 08:22:15 51°21.76 3°6.158 17.1667 1.749869 12.755017 -0.826448
2010-04-15 08:22:20 51°21.765 3°6.183 17.1575 1.749869 12.755017 -0.826448
2010-04-15 08:22:24 51°21.769 3°6.204 17.1618 1.750289 12.758347 -0.826448
2010-04-15 08:22:30 51°21.776 3°6.234 17.1644 1.750289 12.757151 -0.826448
2010-04-15 08:22:35 51°21.782 3°6.259 17.1619 1.750604 12.760127 -0.861272
2010-04-15 08:22:40 51°21.787 3°6.285 17.1617 1.750079 12.755725 -0.861272
2010-04-15 08:22:45 51°21.793 3°6.31 17.1684 1.750289 12.755477 -0.861272
2010-04-15 08:22:50 51°21.798 3°6.335 17.1653 1.750289 12.755477 -0.861272
2010-04-15 08:22:55 51°21.804 3°6.36 17.1646 1.749974 12.754892 -0.861272
2010-04-15 08:23:00 51°21.81 3°6.385 17.1753 1.750289 12.755238 -0.861272
2010-04-15 08:23:05 51°21.815 3°6.411 17.1621 1.750184 12.754883 -0.861272
2010-04-15 08:23:10 51°21.822 3°6.435 17.1704 1.750079 12.752616 -0.896096
2010-04-15 08:23:15 51°21.827 3°6.46 17.1727 1.750184 12.752253 -0.861272
2010-04-15 08:23:20 51°21.833 3°6.486 17.1684 1.750184 12.752253 -0.861272
2010-04-15 08:23:26 51°21.84 3°6.516 17.1804 1.750184 12.751297 -0.826448
2010-04-15 08:23:30 51°21.844 3°6.536 17.1721 1.750184 12.752014 -0.861272
2010-04-15 08:23:35 51°21.85 3°6.561 17.1757 1.750394 12.755113 -0.861272
2010-04-15 08:23:40 51°21.855 3°6.586 17.1701 1.749869 12.753103 -0.826448
2010-04-15 08:23:45 51°21.861 3°6.611 17.1774 1.749869 12.751669 -0.861272
2010-04-15 08:23:51 51°21.868 3°6.641 17.1728 1.749869 12.751669 -0.861272
2010-04-15 08:23:55 51°21.873 3°6.66 17.184 1.750394 12.755113 -0.861272
2010-04-15 08:24:00 51°21.879 3°6.686 17.1764 1.749764 12.749402 -0.861272
2010-04-15 08:24:05 51°21.885 3°6.711 17.1844 1.749659 12.747375 -0.826448
2010-04-15 08:24:10 51°21.891 3°6.736 17.1787 1.750079 12.751182 -0.861272
2010-04-15 08:24:15 51°21.897 3°6.761 17.2021 1.750079 12.74927 -0.861272
2010-04-15 08:24:20 51°21.902 3°6.787 17.1833 1.750079 12.74927 -0.861272
2010-04-15 08:24:25 51°21.908 3°6.812 17.1885 1.750079 12.75166 -0.896096
2010-04-15 08:24:30 51°21.913 3°6.837 17.1864 1.750184 12.752492 -0.861272
2010-04-15 08:24:35 51°21.919 3°6.862 17.1939 1.750184 12.753449 -0.826448
2010-04-15 08:24:40 51°21.923 3°6.888 17.1834 1.749869 12.752625 -0.861272
2010-04-15 08:24:45 51°21.93 3°6.913 17.214 1.749344 12.748702 -0.826448
2010-04-15 08:24:50 51°21.935 3°6.939 17.1862 1.749344 12.748702 -0.826448
2010-04-15 08:24:55 51°21.941 3°6.964 17.1975 1.750289 12.758347 -0.861272
2010-04-15 08:25:00 51°21.946 3°6.99 17.1944 1.749764 12.753227 -0.861272
2010-04-15 08:25:05 51°21.951 3°7.015 17.1905 1.749869 12.753582 -0.826448
2010-04-15 08:25:10 51°21.957 3°7.041 17.1988 1.749764 12.750358 -0.861272
2010-04-15 08:25:15 51°21.963 3°7.066 17.1985 1.750289 12.75213 -0.861272
2010-04-15 08:25:20 51°21.969 3°7.092 17.2022 1.750289 12.75213 -0.861272
2010-04-15 08:25:25 51°21.975 3°7.117 17.2007 1.749974 12.749155 -0.861272
2010-04-15 08:25:30 51°21.981 3°7.143 17.2024 1.750079 12.751182 -0.861272
2010-04-15 08:25:35 51°21.986 3°7.169 17.1999 1.749764 12.750597 -0.826448
2010-04-15 08:25:40 51°21.993 3°7.194 17.209 1.749764 12.751553 -0.861272
2010-04-15 08:25:46 51°21.999 3°7.225 17.2049 1.749764 12.753945 -0.826448
2010-04-15 08:25:50 51°22.005 3°7.245 17.2114 1.749764 12.753945 -0.826448
2010-04-15 08:25:55 51°22.01 3°7.271 17.1944 1.749659 12.75383 -0.826448
2010-04-15 08:26:00 51°22.017 3°7.296 17.2289 1.750394 12.758462 -0.861272
2010-04-15 08:26:05 51°22.022 3°7.322 17.2025 1.749659 12.75694 -0.861272
2010-04-15 08:26:10 51°22.029 3°7.347 17.2222 1.749554 12.753236 -0.861272
2010-04-15 08:26:15 51°22.034 3°7.373 17.2066 1.749554 12.753475 -0.826448
2010-04-15 08:26:20 51°22.04 3°7.398 17.2125 1.749554 12.753475 -0.826448
2010-04-15 08:26:25 51°22.045 3°7.423 17.3612 1.749869 12.753103 -0.826448
2010-04-15 08:26:30 51°22.05 3°7.449 17.3116 1.749659 12.75096 -0.861272
2010-04-15 08:26:35 51°22.056 3°7.474 17.2791 1.748819 12.747886 -0.861272
2010-04-15 08:26:40 51°22.062 3°7.5 17.2767 1.749974 12.757524 -0.861272
2010-04-15 08:26:44 51°22.066 3°7.52 17.2669 1.749974 12.754414 -0.826448
2010-04-15 08:26:50 51°22.073 3°7.551 17.2716 1.749974 12.754414 -0.826448
2010-04-15 08:26:55 51°22.079 3°7.576 17.2641 1.749659 12.751199 -0.861272
2010-04-15 08:27:00 51°22.085 3°7.601 17.266 1.749869 12.755256 -0.861272
2010-04-15 08:27:05 51°22.09 3°7.627 17.2699 1.750079 12.755725 -0.861272
2010-04-15 08:27:10 51°22.096 3°7.652 17.2791 1.749659 12.754308 -0.826448
2010-04-15 08:27:15 51°22.101 3°7.678 17.2633 1.750184 12.758232 -0.826448
2010-04-15 08:27:20 51°22.108 3°7.703 17.3079 1.750184 12.758232 -0.826448
2010-04-15 08:27:25 51°22.113 3°7.728 17.2862 1.749554 12.753715 -0.861272
2010-04-15 08:27:30 51°22.12 3°7.753 17.3085 1.750289 12.761698 -0.826448
2010-04-15 08:27:35 51°22.124 3°7.779 17.2849 1.748924 12.751349 -0.861272
2010-04-15 08:27:40 51°22.131 3°7.803 17.2807 1.750499 12.761927 -0.896096
2010-04-15 08:27:45 51°22.136 3°7.829 17.2859 1.749239 12.754327 -0.861272
2010-04-15 08:27:50 51°22.142 3°7.854 17.2823 1.749239 12.754327 -0.861272
2010-04-15 08:27:55 51°22.148 3°7.879 17.2887 1.749344 12.753484 -0.826448
2010-04-15 08:28:00 51°22.153 3°7.905 17.2805 1.749554 12.754911 -0.826448
2010-04-15 08:28:05 51°22.159 3°7.93 17.2875 1.749449 12.752164 -0.826448
2010-04-15 08:28:11 51°22.166 3°7.96 17.2831 1.749554 12.751562 -0.826448
2010-04-15 08:28:15 51°22.17 3°7.98 17.292 1.749134 12.750623 -0.861272
2010-04-15 08:28:20 51°22.176 3°8.006 17.2881 1.749134 12.750623 -0.861272
2010-04-15 08:28:25 51°22.181 3°8.031 17.2841 1.749554 12.754193 -0.861272
2010-04-15 08:28:30 51°22.186 3°8.057 17.2826 1.749134 12.753494 -0.896096
2010-04-15 08:28:35 51°22.191 3°8.082 17.2863 1.749449 12.754796 -0.826448
2010-04-15 08:28:40 51°22.196 3°8.109 17.2956 1.749659 12.755026 -0.826448
2010-04-15 08:28:45 51°22.2 3°8.135 17.2994 1.749554 12.756586 -0.861272
2010-04-15 08:28:50 51°22.204 3°8.162 17.2917 1.749554 12.756586 -0.861272
2010-04-15 08:28:55 51°22.208 3°8.188 17.3056 1.749449 12.75695 -0.861272
2010-04-15 08:29:00 51°22.21 3°8.215 17.2913 1.748924 12.753742 -0.896096
2010-04-15 08:29:05 51°22.213 3°8.242 17.3071 1.749554 12.759937 -0.861272
2010-04-15 08:29:10 51°22.214 3°8.268 17.3038 1.749239 12.758156 -0.826448
2010-04-15 08:29:15 51°22.217 3°8.295 17.3053 1.749134 12.757563 -0.861272
2010-04-15 08:29:20 51°22.22 3°8.322 17.3065 1.749134 12.757563 -0.861272
2010-04-15 08:29:25 51°22.222 3°8.349 17.3077 1.749134 12.756605 -0.826448
2010-04-15 08:29:30 51°22.224 3°8.376 17.3065 1.749134 12.758281 -0.826448
2010-04-15 08:29:35 51°22.226 3°8.403 17.3053 1.748924 12.755418 -0.861272
2010-04-15 08:29:40 51°22.228 3°8.43 17.3091 1.749134 12.755169 -0.826448
2010-04-15 08:29:45 51°22.23 3°8.457 17.3026 1.749554 12.758022 -0.861272
2010-04-15 08:29:50 51°22.233 3°8.485 17.3185 1.749554 12.758022 -0.861272
2010-04-15 08:29:55 51°22.234 3°8.512 17.3059 1.748714 12.753751 -0.861272
2010-04-15 08:30:00 51°22.237 3°8.539 17.3366 1.749554 12.757304 -0.861272
2010-04-15 08:30:04 51°22.238 3°8.561 17.2982 1.748609 12.75627 -0.861272